KLM757 EHAM-MPTO

Flight info

Callsign KLM757
Flight time N/A
Altitude 32000
Route IDRID L980 MANGO DCT ENHAQ DCT GAJIT DCT BAPHU DCT LESLU/M084F320 DCT SOMAX/M084F340 NATG ELSIR DCT LOMPI DCT SOORY/M084F360 DCT BALOO DCT GECAL DCT MLLER/N0489F360 DCT MNDEZ DCT POKEG/N0485F380 DCT PALAS UM597 AGUJA LODOP1C
Aircraft B77W/H-SDE1E2E3FGHIJ2J3J4J5M1RWXY/LB1D1

Departure

Time N/A
Airport Amsterdam Airport Schiphol (EHAM)

Arrival

Time 2026-04-28 22:06
Airport Tocumen International Airport (MPTO)
Time Latitude Longitude Altitude Speed Heading
2026-04-28 12:05 50.80955 -9.61816 32369 ft 510 kts 262°
2026-04-28 12:06 50.79570 -9.72842 32369 ft 509 kts 262°
2026-04-28 12:06 50.78181 -9.83815 32376 ft 509 kts 262°
2026-04-28 12:07 50.76780 -9.94791 32373 ft 509 kts 262°
2026-04-28 12:07 50.75371 -10.05745 32371 ft 509 kts 262°
2026-04-28 12:08 50.73960 -10.16635 32371 ft 509 kts 262°
2026-04-28 12:08 50.72528 -10.27589 32371 ft 510 kts 262°
2026-04-28 12:09 50.71087 -10.38536 32367 ft 509 kts 262°
2026-04-28 12:09 50.69637 -10.49459 32372 ft 509 kts 261°
2026-04-28 12:10 50.68178 -10.60372 32376 ft 508 kts 261°
2026-04-28 12:10 50.66710 -10.71266 32373 ft 508 kts 261°
2026-04-28 12:11 50.65233 -10.82155 32355 ft 507 kts 261°
2026-04-28 12:11 50.63748 -10.93010 32369 ft 506 kts 261°
2026-04-28 12:12 50.62253 -11.03860 32370 ft 506 kts 261°
2026-04-28 12:12 50.60750 -11.14690 32372 ft 506 kts 261°
2026-04-28 12:13 50.59238 -11.25510 32354 ft 506 kts 261°
2026-04-28 12:13 50.57724 -11.36255 32371 ft 506 kts 261°
2026-04-28 12:14 50.56190 -11.47072 32369 ft 506 kts 261°
2026-04-28 12:14 50.54649 -11.57859 32370 ft 506 kts 260°
2026-04-28 12:15 50.53095 -11.68661 32350 ft 506 kts 260°
2026-04-28 12:15 50.51535 -11.79432 32364 ft 505 kts 260°
2026-04-28 12:16 50.49973 -11.90133 32366 ft 505 kts 260°
2026-04-28 12:16 50.48395 -12.00873 32366 ft 505 kts 260°
2026-04-28 12:17 50.46807 -12.11609 32366 ft 505 kts 259°
2026-04-28 12:17 50.45211 -12.22324 32363 ft 504 kts 259°
2026-04-28 12:18 50.43606 -12.33029 32363 ft 503 kts 259°
2026-04-28 12:18 50.41992 -12.43714 32364 ft 503 kts 259°
2026-04-28 12:19 50.40369 -12.54396 32364 ft 503 kts 259°
2026-04-28 12:19 50.38737 -12.65059 32362 ft 503 kts 258°
2026-04-28 12:20 50.37108 -12.75636 32367 ft 503 kts 258°
2026-04-28 12:20 50.35458 -12.86277 32364 ft 502 kts 258°
2026-04-28 12:21 50.33799 -12.96902 32363 ft 502 kts 258°
2026-04-28 12:21 50.32131 -13.07523 32358 ft 502 kts 258°
2026-04-28 12:22 50.30455 -13.18122 32358 ft 502 kts 258°
2026-04-28 12:22 50.28767 -13.28725 32359 ft 502 kts 258°
2026-04-28 12:23 50.27068 -13.39334 32525 ft 505 kts 258°
2026-04-28 12:23 50.26212 -13.44655 32878 ft 503 kts 257°
2026-04-28 12:23 50.25359 -13.49937 33310 ft 499 kts 257°
2026-04-28 12:24 50.24511 -13.55169 33752 ft 496 kts 257°
2026-04-28 12:24 50.23664 -13.60384 34142 ft 493 kts 257°
2026-04-28 12:24 50.22829 -13.65507 34320 ft 495 kts 257°
2026-04-28 12:24 50.21976 -13.70729 34352 ft 496 kts 257°
2026-04-28 12:25 50.20264 -13.81153 34354 ft 494 kts 256°
2026-04-28 12:25 50.18554 -13.91498 34351 ft 491 kts 256°
2026-04-28 12:26 50.16843 -14.01796 34361 ft 490 kts 256°
2026-04-28 12:26 50.15122 -14.12082 34357 ft 490 kts 256°
2026-04-28 12:27 50.13391 -14.22372 34357 ft 491 kts 256°
2026-04-28 12:27 50.11646 -14.32686 34359 ft 493 kts 256°
2026-04-28 12:28 50.09887 -14.43018 34368 ft 494 kts 256°
2026-04-28 12:28 50.08115 -14.53365 34364 ft 495 kts 256°
2026-04-28 12:29 50.05436 -14.68895 34362 ft 495 kts 256°
2026-04-28 12:30 50.03652 -14.79164 34370 ft 495 kts 255°
2026-04-28 12:30 50.01838 -14.89550 34357 ft 494 kts 255°
2026-04-28 12:31 50.00850 -14.99952 34374 ft 490 kts 273°
2026-04-28 12:31 50.02133 -15.10328 34358 ft 491 kts 291°
2026-04-28 12:32 50.04476 -15.20376 34371 ft 497 kts 291°
2026-04-28 12:32 50.06825 -15.30544 34367 ft 500 kts 290°
2026-04-28 12:33 50.09124 -15.40775 34364 ft 501 kts 290°
2026-04-28 12:33 50.11385 -15.51004 34371 ft 498 kts 290°
2026-04-28 12:34 50.13624 -15.61200 34366 ft 495 kts 290°
2026-04-28 12:34 50.15826 -15.71265 34366 ft 492 kts 290°
2026-04-28 12:35 50.18029 -15.81372 34367 ft 491 kts 289°
2026-04-28 12:35 50.20220 -15.91473 34366 ft 491 kts 289°
2026-04-28 12:36 50.22405 -16.01600 34361 ft 492 kts 289°
2026-04-28 12:36 50.24583 -16.11740 34359 ft 493 kts 289°
2026-04-28 12:37 50.26756 -16.21911 34360 ft 494 kts 289°
2026-04-28 12:37 50.28926 -16.32121 34362 ft 494 kts 288°
2026-04-28 12:38 50.31072 -16.42265 34366 ft 495 kts 288°
2026-04-28 12:38 50.33225 -16.52496 34366 ft 495 kts 288°
2026-04-28 12:39 50.35370 -16.62738 34361 ft 495 kts 288°
2026-04-28 12:39 50.37506 -16.72990 34362 ft 494 kts 288°
2026-04-28 12:40 50.39629 -16.83232 34360 ft 494 kts 287°
2026-04-28 12:40 50.41738 -16.93461 34367 ft 493 kts 287°
2026-04-28 12:41 50.43837 -17.03694 34366 ft 492 kts 287°
2026-04-28 12:41 50.45926 -17.13929 34372 ft 492 kts 287°
2026-04-28 12:42 50.48003 -17.24162 34360 ft 492 kts 287°
2026-04-28 12:42 50.50074 -17.34414 34360 ft 492 kts 287°
2026-04-28 12:43 50.52136 -17.44675 34372 ft 492 kts 285°
2026-04-28 12:43 50.54174 -17.54868 34349 ft 492 kts 285°
2026-04-28 12:44 50.56211 -17.65115 34353 ft 491 kts 285°
2026-04-28 12:44 50.58239 -17.75373 34369 ft 490 kts 285°
2026-04-28 12:45 50.60256 -17.85627 34370 ft 490 kts 285°
2026-04-28 12:45 50.61924 -17.94144 34369 ft 490 kts 285°
2026-04-28 12:46 50.63923 -18.04403 34356 ft 490 kts 284°
2026-04-28 12:46 50.65914 -18.14680 34356 ft 490 kts 284°
2026-04-28 12:47 50.67897 -18.24969 34359 ft 490 kts 284°
2026-04-28 12:47 50.69871 -18.35268 34358 ft 490 kts 284°
2026-04-28 12:48 50.71837 -18.45579 34347 ft 490 kts 284°
2026-04-28 12:48 50.73792 -18.55889 34351 ft 490 kts 283°
2026-04-28 12:49 50.75739 -18.66218 34346 ft 490 kts 283°
2026-04-28 12:49 50.77665 -18.76488 34360 ft 490 kts 283°
2026-04-28 12:50 50.79589 -18.86803 34344 ft 488 kts 283°
2026-04-28 12:50 50.81499 -18.97102 34345 ft 487 kts 283°
2026-04-28 12:51 50.83392 -19.07366 34347 ft 486 kts 283°
2026-04-28 12:51 50.85273 -19.17624 34351 ft 485 kts 283°
2026-04-28 12:52 50.87143 -19.27880 34344 ft 484 kts 283°
2026-04-28 12:52 50.89001 -19.38127 34344 ft 484 kts 283°
2026-04-28 12:53 50.90847 -19.48365 34349 ft 483 kts 283°
2026-04-28 12:53 50.92672 -19.58540 34337 ft 483 kts 283°
2026-04-28 12:54 50.94501 -19.68800 34339 ft 483 kts 283°
2026-04-28 12:54 50.96321 -19.79063 34335 ft 483 kts 283°
2026-04-28 12:55 50.98131 -19.89334 34335 ft 483 kts 283°
2026-04-28 12:55 50.99934 -19.99611 34335 ft 484 kts 283°
2026-04-28 12:56 51.01560 -20.09964 34328 ft 483 kts 280°
2026-04-28 12:56 51.03005 -20.20372 34333 ft 483 kts 280°
2026-04-28 12:57 51.04447 -20.30788 34332 ft 483 kts 280°
2026-04-28 12:57 51.05912 -20.41200 34320 ft 482 kts 280°
2026-04-28 12:58 51.07371 -20.51537 34315 ft 482 kts 280°
2026-04-28 12:58 51.08832 -20.61942 34310 ft 482 kts 280°
2026-04-28 12:59 51.10283 -20.72354 34306 ft 481 kts 280°
2026-04-28 12:59 51.11720 -20.82749 34318 ft 481 kts 279°
2026-04-28 13:00 51.13148 -20.93154 34309 ft 481 kts 279°
2026-04-28 13:00 51.14567 -21.03563 34296 ft 480 kts 279°
2026-04-28 13:01 51.15964 -21.13888 34299 ft 479 kts 279°
2026-04-28 13:01 51.17360 -21.24278 34289 ft 479 kts 279°
2026-04-28 13:02 51.18744 -21.34660 34289 ft 479 kts 279°
2026-04-28 13:02 51.20123 -21.45069 34291 ft 478 kts 278°
2026-04-28 13:03 51.21487 -21.55443 34276 ft 478 kts 278°
2026-04-28 13:03 51.22840 -21.65806 34287 ft 476 kts 278°
2026-04-28 13:04 51.24179 -21.76142 34272 ft 475 kts 277°
2026-04-28 13:04 51.25505 -21.86462 34265 ft 474 kts 277°
2026-04-28 13:05 51.26813 -21.96711 34284 ft 473 kts 277°
2026-04-28 13:05 51.28121 -22.07030 34270 ft 474 kts 277°
2026-04-28 13:06 51.29418 -22.17353 34252 ft 474 kts 277°
2026-04-28 13:06 51.30706 -22.27677 34258 ft 474 kts 276°
2026-04-28 13:07 51.31989 -22.38035 34247 ft 474 kts 276°
2026-04-28 13:07 51.33262 -22.48394 34252 ft 475 kts 276°
2026-04-28 13:08 51.34527 -22.58769 34245 ft 475 kts 276°
2026-04-28 13:08 51.35783 -22.69147 34238 ft 475 kts 276°
2026-04-28 13:09 51.37030 -22.79537 34237 ft 475 kts 276°
2026-04-28 13:09 51.38267 -22.89924 34233 ft 475 kts 276°
2026-04-28 13:10 51.39486 -23.00245 34226 ft 474 kts 275°
2026-04-28 13:10 51.40702 -23.10621 34225 ft 474 kts 275°
2026-04-28 13:11 51.41911 -23.21016 34236 ft 475 kts 275°
2026-04-28 13:11 51.43110 -23.31415 34222 ft 475 kts 274°
2026-04-28 13:12 51.44301 -23.41839 34207 ft 475 kts 274°
2026-04-28 13:12 51.45484 -23.52271 34200 ft 476 kts 274°
2026-04-28 13:13 51.46659 -23.62711 34201 ft 476 kts 274°
2026-04-28 13:13 51.47824 -23.73154 34213 ft 476 kts 274°
2026-04-28 13:14 51.48981 -23.83625 34195 ft 477 kts 274°
2026-04-28 13:14 51.50132 -23.94124 34184 ft 478 kts 273°
2026-04-28 13:15 51.51275 -24.04639 34198 ft 479 kts 273°
2026-04-28 13:15 51.52404 -24.15118 34185 ft 479 kts 273°
2026-04-28 13:16 51.53530 -24.25661 34173 ft 478 kts 273°
2026-04-28 13:16 51.54645 -24.36194 34180 ft 478 kts 272°
2026-04-28 13:17 51.55751 -24.46738 34166 ft 478 kts 272°
2026-04-28 13:17 51.56845 -24.57255 34163 ft 477 kts 272°
2026-04-28 13:18 51.57921 -24.67699 34160 ft 476 kts 272°
2026-04-28 13:18 51.58993 -24.78203 34172 ft 476 kts 272°
2026-04-28 13:19 51.60056 -24.88718 34174 ft 475 kts 271°
2026-04-28 13:19 51.61108 -24.99209 34146 ft 474 kts 271°
2026-04-28 13:20 51.62146 -25.09661 34133 ft 472 kts 271°
2026-04-28 13:20 51.63171 -25.20088 34138 ft 471 kts 271°
2026-04-28 13:21 51.64177 -25.30429 34154 ft 471 kts 271°
2026-04-28 13:21 51.65182 -25.40864 34123 ft 471 kts 271°
2026-04-28 13:22 51.66180 -25.51300 34124 ft 470 kts 271°
2026-04-28 13:22 51.67166 -25.61715 34130 ft 470 kts 270°
2026-04-28 13:23 51.68142 -25.72124 34120 ft 469 kts 270°
2026-04-28 13:23 51.69106 -25.82532 34136 ft 470 kts 270°
2026-04-28 13:24 51.70064 -25.92970 34099 ft 471 kts 270°
2026-04-28 13:24 51.71014 -26.03402 34109 ft 469 kts 270°
2026-04-28 13:25 51.71945 -26.13744 34108 ft 469 kts 269°
2026-04-28 13:25 51.72873 -26.24169 34105 ft 469 kts 269°
2026-04-28 13:26 51.73790 -26.34578 34096 ft 469 kts 269°
2026-04-28 13:26 51.74700 -26.45012 34090 ft 470 kts 269°
2026-04-28 13:27 51.75601 -26.55447 34085 ft 470 kts 269°
2026-04-28 13:27 51.76493 -26.65889 34121 ft 469 kts 268°
2026-04-28 13:28 51.77377 -26.76344 34084 ft 470 kts 268°
2026-04-28 13:28 51.78251 -26.86805 34067 ft 470 kts 268°
2026-04-28 13:29 51.79115 -26.97259 34068 ft 470 kts 268°
2026-04-28 13:29 51.79970 -27.07724 34065 ft 469 kts 268°
2026-04-28 13:30 51.80809 -27.18102 34090 ft 469 kts 267°
2026-04-28 13:30 51.81646 -27.28580 34078 ft 470 kts 267°
2026-04-28 13:31 51.82883 -27.44304 34054 ft 470 kts 267°
2026-04-28 13:31 51.83697 -27.54797 34053 ft 470 kts 267°
2026-04-28 13:32 51.84367 -27.63520 34058 ft 470 kts 267°
2026-04-28 13:32 51.85164 -27.74031 34041 ft 471 kts 266°
2026-04-28 13:33 51.86082 -27.86271 34070 ft 471 kts 267°
2026-04-28 13:33 51.86735 -27.95091 34033 ft 471 kts 267°
2026-04-28 13:34 51.87501 -28.05558 34041 ft 471 kts 267°
2026-04-28 13:34 51.88262 -28.16085 34033 ft 470 kts 267°
2026-04-28 13:35 51.89013 -28.26608 34033 ft 471 kts 267°
2026-04-28 13:35 51.89754 -28.37130 34019 ft 470 kts 267°
2026-04-28 13:36 51.90484 -28.47633 34047 ft 469 kts 267°
2026-04-28 13:36 51.91204 -28.58146 34020 ft 470 kts 267°
2026-04-28 13:37 51.91917 -28.68671 34023 ft 469 kts 266°
2026-04-28 13:37 51.92620 -28.79191 34054 ft 469 kts 266°
2026-04-28 13:38 51.93312 -28.89721 34026 ft 470 kts 266°
2026-04-28 13:38 51.93992 -29.00189 34008 ft 470 kts 266°
2026-04-28 13:39 51.94667 -29.10725 34021 ft 471 kts 266°
2026-04-28 13:39 51.95333 -29.21280 34018 ft 471 kts 266°
2026-04-28 13:40 51.95991 -29.31847 34012 ft 471 kts 266°
2026-04-28 13:40 51.96638 -29.42407 34014 ft 471 kts 266°
2026-04-28 13:41 51.97276 -29.52971 34008 ft 470 kts 266°
2026-04-28 13:41 51.97905 -29.63539 34020 ft 471 kts 266°
2026-04-28 13:42 51.98525 -29.74143 34023 ft 473 kts 266°
2026-04-28 13:42 51.99134 -29.84704 34017 ft 474 kts 266°
2026-04-28 13:43 51.99741 -29.95364 34021 ft 474 kts 266°
2026-04-28 13:43 52.00300 -30.06025 34021 ft 474 kts 265°
2026-04-28 13:44 52.00733 -30.16693 34016 ft 473 kts 265°
2026-04-28 13:44 52.01139 -30.27359 34040 ft 473 kts 265°
2026-04-28 13:45 52.01551 -30.38039 34037 ft 474 kts 265°
2026-04-28 13:45 52.01963 -30.48714 34033 ft 474 kts 265°
2026-04-28 13:46 52.02365 -30.59326 34042 ft 473 kts 265°
2026-04-28 13:46 52.02760 -30.69991 34041 ft 473 kts 265°
2026-04-28 13:47 52.03145 -30.80675 34045 ft 473 kts 265°
2026-04-28 13:47 52.03519 -30.91358 34058 ft 474 kts 265°
2026-04-28 13:48 52.03885 -31.02040 34037 ft 474 kts 265°
2026-04-28 13:48 52.04241 -31.12716 34039 ft 473 kts 265°
2026-04-28 13:49 52.04587 -31.23407 34051 ft 473 kts 265°
2026-04-28 13:49 52.04920 -31.34022 34055 ft 474 kts 266°
2026-04-28 13:50 52.05248 -31.44728 34050 ft 473 kts 265°
2026-04-28 13:50 52.05565 -31.55400 34054 ft 473 kts 265°
2026-04-28 13:51 52.05871 -31.66061 34063 ft 472 kts 265°
2026-04-28 13:51 52.06168 -31.76728 34065 ft 472 kts 265°
2026-04-28 13:52 52.06455 -31.87381 34062 ft 472 kts 265°
2026-04-28 13:52 52.06732 -31.98042 34074 ft 472 kts 265°
2026-04-28 13:53 52.06997 -32.08628 34084 ft 473 kts 266°
2026-04-28 13:53 52.07255 -32.19324 34082 ft 474 kts 266°
2026-04-28 13:54 52.07506 -32.30058 34096 ft 476 kts 266°
2026-04-28 13:54 52.07747 -32.40820 34098 ft 477 kts 266°
2026-04-28 13:55 52.07979 -32.51611 34087 ft 477 kts 266°
2026-04-28 13:55 52.08201 -32.62344 34091 ft 477 kts 266°
2026-04-28 13:56 52.08412 -32.73112 34103 ft 477 kts 267°
2026-04-28 13:56 52.08615 -32.83889 34108 ft 476 kts 267°
2026-04-28 13:57 52.08807 -32.94660 34101 ft 476 kts 267°
2026-04-28 13:57 52.08989 -33.05423 34116 ft 476 kts 267°
2026-04-28 13:58 52.09161 -33.16180 34116 ft 475 kts 267°
2026-04-28 13:58 52.09323 -33.26920 34127 ft 475 kts 268°
2026-04-28 13:59 52.09474 -33.37593 34130 ft 475 kts 268°
2026-04-28 13:59 52.09617 -33.48344 34131 ft 476 kts 268°
2026-04-28 14:00 52.09751 -33.59117 34131 ft 476 kts 268°
2026-04-28 14:00 52.09874 -33.69888 34144 ft 477 kts 268°
2026-04-28 14:01 52.09988 -33.80674 34142 ft 477 kts 268°
2026-04-28 14:01 52.10091 -33.91453 34149 ft 476 kts 268°
2026-04-28 14:02 52.10186 -34.02202 34146 ft 474 kts 268°
2026-04-28 14:02 52.10270 -34.12897 34143 ft 472 kts 268°
2026-04-28 14:03 52.10343 -34.23490 34152 ft 471 kts 268°
2026-04-28 14:03 52.10407 -34.34138 34151 ft 470 kts 268°
2026-04-28 14:04 52.10461 -34.44779 34164 ft 470 kts 268°
2026-04-28 14:04 52.10506 -34.55415 34162 ft 470 kts 268°
2026-04-28 14:05 52.10541 -34.66054 34160 ft 470 kts 268°
2026-04-28 14:05 52.10567 -34.76703 34160 ft 470 kts 268°
2026-04-28 14:06 52.10584 -34.87332 34164 ft 470 kts 268°
2026-04-28 14:06 52.10590 -34.97948 34169 ft 469 kts 268°
2026-04-28 14:07 52.10587 -35.08547 34176 ft 467 kts 269°
2026-04-28 14:07 52.10575 -35.19040 34171 ft 466 kts 268°
2026-04-28 14:08 52.10553 -35.29569 34178 ft 465 kts 268°
2026-04-28 14:08 52.10522 -35.40068 34190 ft 464 kts 268°
2026-04-28 14:09 52.10482 -35.50558 34179 ft 464 kts 268°
2026-04-28 14:09 52.10433 -35.61056 34187 ft 464 kts 268°
2026-04-28 14:10 52.10374 -35.71541 34193 ft 462 kts 268°
2026-04-28 14:10 52.10306 -35.81967 34185 ft 460 kts 268°
2026-04-28 14:11 52.10230 -35.92269 34193 ft 458 kts 268°
2026-04-28 14:11 52.10145 -36.02611 34190 ft 457 kts 268°
2026-04-28 14:12 52.10051 -36.12942 34202 ft 456 kts 268°
2026-04-28 14:12 52.09947 -36.23282 34197 ft 457 kts 268°
2026-04-28 14:13 52.09835 -36.33597 34204 ft 456 kts 268°
2026-04-28 14:13 52.09714 -36.43903 34226 ft 455 kts 268°
2026-04-28 14:14 52.09584 -36.54193 34209 ft 454 kts 268°
2026-04-28 14:14 52.09446 -36.64442 34207 ft 452 kts 268°
2026-04-28 14:15 52.09300 -36.74598 34215 ft 451 kts 268°
2026-04-28 14:15 52.09145 -36.84780 34220 ft 450 kts 268°
2026-04-28 14:16 52.08982 -36.94954 34217 ft 449 kts 268°
2026-04-28 14:16 52.08810 -37.05107 34217 ft 449 kts 268°
2026-04-28 14:17 52.08630 -37.15245 34224 ft 448 kts 268°
2026-04-28 14:17 52.08441 -37.25375 34254 ft 448 kts 267°
2026-04-28 14:18 52.08243 -37.35512 34235 ft 449 kts 267°
2026-04-28 14:18 52.08038 -37.45583 34231 ft 449 kts 267°
2026-04-28 14:19 52.07823 -37.55723 34223 ft 449 kts 267°
2026-04-28 14:19 52.07599 -37.65863 34223 ft 449 kts 267°
2026-04-28 14:20 52.07366 -37.76002 34226 ft 448 kts 267°
2026-04-28 14:20 52.07125 -37.86131 34240 ft 448 kts 267°
2026-04-28 14:21 52.06875 -37.96264 34243 ft 448 kts 266°
2026-04-28 14:21 52.06661 -38.04673 34228 ft 448 kts 267°
2026-04-28 14:22 52.06395 -38.14790 34245 ft 448 kts 267°
2026-04-28 14:22 52.06121 -38.24902 34243 ft 448 kts 266°
2026-04-28 14:23 52.05839 -38.35003 34242 ft 448 kts 266°
2026-04-28 14:23 52.05547 -38.45128 34246 ft 448 kts 266°
2026-04-28 14:24 52.05250 -38.55166 34249 ft 448 kts 266°
2026-04-28 14:24 52.04941 -38.65273 34254 ft 448 kts 266°
2026-04-28 14:25 52.04624 -38.75357 34251 ft 447 kts 266°
2026-04-28 14:25 52.04299 -38.85440 34254 ft 446 kts 266°
2026-04-28 14:26 52.03966 -38.95505 34252 ft 446 kts 266°
2026-04-28 14:26 52.03624 -39.05574 34259 ft 446 kts 266°
2026-04-28 14:27 52.03274 -39.15632 34258 ft 446 kts 266°
2026-04-28 14:27 52.02916 -39.25679 34258 ft 445 kts 266°
2026-04-28 14:28 52.02552 -39.35645 34256 ft 445 kts 266°
2026-04-28 14:28 52.02178 -39.45661 34265 ft 444 kts 266°
2026-04-28 14:29 52.01795 -39.55673 34272 ft 444 kts 266°
2026-04-28 14:29 52.01404 -39.65684 34264 ft 444 kts 266°
2026-04-28 14:30 52.01004 -39.75697 34263 ft 444 kts 266°
2026-04-28 14:30 52.00597 -39.85707 34271 ft 445 kts 266°
2026-04-28 14:31 52.00183 -39.95670 34275 ft 446 kts 266°
2026-04-28 14:31 51.99222 -40.05613 34270 ft 447 kts 257°
2026-04-28 14:32 51.97693 -40.15411 34274 ft 448 kts 257°
2026-04-28 14:32 51.96177 -40.25238 34279 ft 449 kts 257°
2026-04-28 14:33 51.94668 -40.35070 34264 ft 449 kts 257°
2026-04-28 14:33 51.93156 -40.44899 34286 ft 448 kts 257°
2026-04-28 14:34 51.90889 -40.59533 34277 ft 448 kts 257°
2026-04-28 14:35 51.89360 -40.69322 34294 ft 447 kts 257°
2026-04-28 14:35 51.87826 -40.79085 34292 ft 447 kts 257°
2026-04-28 14:36 51.86286 -40.88829 34283 ft 447 kts 257°
2026-04-28 14:36 51.84738 -40.98566 34290 ft 447 kts 257°
2026-04-28 14:37 51.83180 -41.08312 34291 ft 448 kts 257°
2026-04-28 14:37 51.81622 -41.17999 34297 ft 449 kts 257°
2026-04-28 14:38 51.80042 -41.27766 34300 ft 449 kts 257°
2026-04-28 14:38 51.78452 -41.37535 34290 ft 449 kts 257°
2026-04-28 14:39 51.76855 -41.47287 34307 ft 449 kts 257°
2026-04-28 14:39 51.75248 -41.57050 34302 ft 449 kts 257°
2026-04-28 14:40 51.73648 -41.66713 34300 ft 448 kts 257°
2026-04-28 14:40 51.72031 -41.76423 34302 ft 448 kts 257°
2026-04-28 14:41 51.70408 -41.86119 34292 ft 447 kts 257°
2026-04-28 14:41 51.68779 -41.95791 34306 ft 447 kts 257°
2026-04-28 14:42 51.67145 -42.05442 34309 ft 446 kts 257°
2026-04-28 14:42 51.65504 -42.15078 34337 ft 446 kts 257°
2026-04-28 14:43 51.63854 -42.24716 34325 ft 447 kts 257°
2026-04-28 14:43 51.62190 -42.34382 34318 ft 447 kts 257°
2026-04-28 14:44 51.60532 -42.43961 34312 ft 447 kts 257°
2026-04-28 14:44 51.58855 -42.53594 34323 ft 447 kts 257°
2026-04-28 14:45 51.57169 -42.63229 34323 ft 447 kts 256°
2026-04-28 14:45 51.55477 -42.72847 34322 ft 448 kts 256°
2026-04-28 14:46 51.53772 -42.82487 34330 ft 448 kts 256°
2026-04-28 14:46 51.52063 -42.92096 34322 ft 448 kts 256°
2026-04-28 14:47 51.50345 -43.01701 34334 ft 448 kts 256°
2026-04-28 14:47 51.48631 -43.11240 34331 ft 448 kts 256°
2026-04-28 14:48 51.46898 -43.20827 34338 ft 448 kts 256°
2026-04-28 14:48 51.45155 -43.30421 34344 ft 448 kts 256°
2026-04-28 14:49 51.43406 -43.40004 34336 ft 448 kts 256°
2026-04-28 14:49 51.41647 -43.49583 34339 ft 448 kts 256°
2026-04-28 14:50 51.39892 -43.59096 34344 ft 448 kts 256°
2026-04-28 14:50 51.38117 -43.68665 34344 ft 448 kts 256°
2026-04-28 14:51 51.36335 -43.78223 34342 ft 448 kts 256°
2026-04-28 14:51 51.34545 -43.87777 34340 ft 448 kts 256°
2026-04-28 14:52 51.32748 -43.97317 34346 ft 447 kts 256°
2026-04-28 14:52 51.30945 -44.06841 34352 ft 447 kts 256°
2026-04-28 14:53 51.29135 -44.16355 34358 ft 447 kts 256°
2026-04-28 14:53 51.27316 -44.25865 34355 ft 448 kts 256°
2026-04-28 14:54 51.25503 -44.35303 34351 ft 447 kts 256°
2026-04-28 14:54 51.23672 -44.44779 34372 ft 447 kts 256°
2026-04-28 14:55 51.21833 -44.54258 34363 ft 447 kts 256°
2026-04-28 14:55 51.19984 -44.63735 34361 ft 448 kts 256°
2026-04-28 14:56 51.18125 -44.73219 34361 ft 448 kts 255°
2026-04-28 14:56 51.16261 -44.82679 34354 ft 447 kts 255°
2026-04-28 14:57 51.14389 -44.92134 34370 ft 447 kts 255°
2026-04-28 14:57 51.12509 -45.01583 34373 ft 448 kts 255°
2026-04-28 14:58 51.10620 -45.11034 34369 ft 448 kts 255°
2026-04-28 14:58 51.08722 -45.20486 34373 ft 448 kts 255°
2026-04-28 14:59 51.06815 -45.29929 34375 ft 448 kts 255°
2026-04-28 14:59 51.04912 -45.39316 34374 ft 448 kts 255°
2026-04-28 15:00 51.02991 -45.48740 34373 ft 448 kts 255°
2026-04-28 15:00 51.01059 -45.58174 34382 ft 448 kts 255°
2026-04-28 15:01 50.99121 -45.67595 34382 ft 449 kts 255°
2026-04-28 15:01 50.97187 -45.76954 34371 ft 449 kts 255°
2026-04-28 15:02 50.95233 -45.86361 34384 ft 449 kts 255°
2026-04-28 15:02 50.93269 -45.95775 34386 ft 450 kts 255°
2026-04-28 15:03 50.91297 -46.05182 34386 ft 450 kts 255°
2026-04-28 15:03 50.89313 -46.14598 34386 ft 450 kts 255°
2026-04-28 15:04 50.87325 -46.23992 34383 ft 450 kts 255°
2026-04-28 15:04 50.85329 -46.33380 34392 ft 450 kts 255°
2026-04-28 15:05 50.83324 -46.42770 34389 ft 450 kts 254°
2026-04-28 15:05 50.81314 -46.52139 34394 ft 450 kts 254°
2026-04-28 15:06 50.79294 -46.61512 34396 ft 450 kts 254°
2026-04-28 15:06 50.77268 -46.70867 34399 ft 450 kts 254°
2026-04-28 15:07 50.75247 -46.80158 34403 ft 451 kts 254°
2026-04-28 15:07 50.73199 -46.89529 34402 ft 452 kts 254°
2026-04-28 15:08 50.71142 -46.98905 34402 ft 452 kts 254°
2026-04-28 15:08 50.69071 -47.08297 34402 ft 453 kts 254°
2026-04-28 15:09 50.66992 -47.17678 34400 ft 453 kts 254°
2026-04-28 15:09 50.65260 -47.25468 34406 ft 453 kts 254°
2026-04-28 15:10 50.63168 -47.34834 34408 ft 453 kts 254°
2026-04-28 15:10 50.61067 -47.44198 34407 ft 453 kts 253°
2026-04-28 15:11 50.58957 -47.53562 34410 ft 453 kts 253°
2026-04-28 15:11 50.56842 -47.62909 34412 ft 453 kts 253°
2026-04-28 15:12 50.54720 -47.72244 34412 ft 453 kts 253°
2026-04-28 15:12 50.52592 -47.81561 34411 ft 454 kts 253°
2026-04-28 15:13 50.50449 -47.90905 34418 ft 455 kts 253°
2026-04-28 15:13 50.48294 -48.00263 34419 ft 456 kts 253°
2026-04-28 15:14 50.46124 -48.09641 34414 ft 457 kts 253°
2026-04-28 15:14 50.43958 -48.18962 34425 ft 458 kts 253°
2026-04-28 15:15 50.41769 -48.28339 34426 ft 458 kts 253°
2026-04-28 15:15 50.39571 -48.37715 34426 ft 458 kts 253°
2026-04-28 15:16 50.37363 -48.47092 34428 ft 458 kts 253°
2026-04-28 15:16 50.35150 -48.56451 34424 ft 458 kts 253°
2026-04-28 15:17 50.32933 -48.65787 34433 ft 457 kts 253°
2026-04-28 15:17 50.30708 -48.75114 34430 ft 457 kts 252°
2026-04-28 15:18 50.28476 -48.84431 34432 ft 457 kts 252°
2026-04-28 15:18 50.26249 -48.93693 34413 ft 459 kts 252°
2026-04-28 15:19 50.23989 -49.03048 34453 ft 461 kts 252°
2026-04-28 15:19 50.21711 -49.12442 34456 ft 463 kts 252°
2026-04-28 15:20 50.19416 -49.21858 34438 ft 465 kts 252°
2026-04-28 15:20 50.17109 -49.31284 34436 ft 465 kts 252°
2026-04-28 15:21 50.14792 -49.40711 34428 ft 465 kts 252°
2026-04-28 15:21 50.12488 -49.50050 34443 ft 464 kts 252°
2026-04-28 15:22 50.10163 -49.59431 34440 ft 464 kts 252°
2026-04-28 15:22 50.07833 -49.68794 34446 ft 463 kts 252°
2026-04-28 15:23 50.05497 -49.78144 34437 ft 463 kts 252°
2026-04-28 15:23 50.03154 -49.87481 34434 ft 463 kts 251°
2026-04-28 15:24 50.00806 -49.96808 34448 ft 463 kts 251°
2026-04-28 15:24 49.98487 -50.06146 34452 ft 463 kts 252°
2026-04-28 15:25 49.96248 -50.15517 34446 ft 463 kts 252°
2026-04-28 15:25 49.94020 -50.24836 34449 ft 463 kts 252°
2026-04-28 15:26 49.91762 -50.34193 34445 ft 463 kts 252°
2026-04-28 15:26 49.89490 -50.43538 34451 ft 463 kts 252°
2026-04-28 15:27 49.87208 -50.52882 34457 ft 463 kts 252°
2026-04-28 15:27 49.84917 -50.62221 34452 ft 463 kts 252°
2026-04-28 15:28 49.82620 -50.71547 34435 ft 463 kts 252°
2026-04-28 15:28 49.80316 -50.80864 34449 ft 462 kts 251°
2026-04-28 15:29 49.78012 -50.90142 34448 ft 461 kts 251°
2026-04-28 15:29 49.75698 -50.99420 34456 ft 463 kts 251°
2026-04-28 15:30 49.73370 -51.08721 34455 ft 465 kts 251°
2026-04-28 15:30 49.71025 -51.18048 34442 ft 466 kts 251°
2026-04-28 15:31 49.68685 -51.27315 34469 ft 467 kts 251°
2026-04-28 15:31 49.66316 -51.36659 34450 ft 467 kts 251°
2026-04-28 15:32 49.63940 -51.45989 34451 ft 467 kts 251°
2026-04-28 15:32 49.61557 -51.55312 34452 ft 467 kts 251°
2026-04-28 15:33 49.59166 -51.64626 34458 ft 466 kts 251°
2026-04-28 15:33 49.56773 -51.73913 34443 ft 466 kts 251°
2026-04-28 15:34 49.54377 -51.83178 34458 ft 465 kts 251°
2026-04-28 15:34 49.51971 -51.92437 34432 ft 465 kts 250°
2026-04-28 15:34 49.50504 -51.96893 34458 ft 470 kts 239°
2026-04-28 15:35 49.48506 -52.00831 34467 ft 476 kts 229°
2026-04-28 15:35 49.43282 -52.07185 34464 ft 483 kts 216°
2026-04-28 15:35 49.40455 -52.10007 34455 ft 486 kts 216°
2026-04-28 15:36 49.34761 -52.15673 34472 ft 487 kts 216°
2026-04-28 15:36 49.29170 -52.21300 34442 ft 476 kts 216°
2026-04-28 15:37 49.23636 -52.26919 34453 ft 477 kts 216°
2026-04-28 15:37 49.19034 -52.31599 34459 ft 479 kts 216°
2026-04-28 15:38 49.12529 -52.38191 34460 ft 480 kts 216°
2026-04-28 15:38 49.06952 -52.43822 34449 ft 481 kts 216°
2026-04-28 15:39 49.01366 -52.49442 34454 ft 481 kts 216°
2026-04-28 15:39 48.95780 -52.55049 34455 ft 480 kts 216°
2026-04-28 15:40 48.90243 -52.60591 34454 ft 479 kts 216°
2026-04-28 15:40 48.84669 -52.66156 34452 ft 479 kts 216°
2026-04-28 15:41 48.79100 -52.71701 34456 ft 479 kts 216°
2026-04-28 15:41 48.73522 -52.77240 34458 ft 479 kts 216°
2026-04-28 15:42 48.67949 -52.82759 34448 ft 479 kts 216°
2026-04-28 15:42 48.62370 -52.88269 34455 ft 479 kts 215°
2026-04-28 15:43 48.56789 -52.93767 34454 ft 479 kts 215°
2026-04-28 15:43 48.51195 -52.99262 34455 ft 479 kts 215°
2026-04-28 15:44 48.45598 -53.04745 34450 ft 479 kts 215°
2026-04-28 15:44 48.40032 -53.10184 34451 ft 480 kts 215°
2026-04-28 15:45 48.34435 -53.15638 34460 ft 480 kts 215°
2026-04-28 15:45 48.28831 -53.21085 34449 ft 478 kts 215°
2026-04-28 15:46 48.23244 -53.26499 34446 ft 476 kts 215°
2026-04-28 15:46 48.17686 -53.31873 34445 ft 474 kts 215°
2026-04-28 15:47 48.12146 -53.37215 34445 ft 473 kts 215°
2026-04-28 15:47 48.06645 -53.42507 34450 ft 472 kts 215°
2026-04-28 15:48 48.01123 -53.47805 34448 ft 471 kts 215°
2026-04-28 15:48 47.95607 -53.53083 34451 ft 471 kts 215°
2026-04-28 15:49 47.90081 -53.58357 34443 ft 471 kts 215°
2026-04-28 15:49 47.84556 -53.63616 34454 ft 471 kts 215°
2026-04-28 15:50 47.79023 -53.68870 34458 ft 471 kts 215°
2026-04-28 15:50 47.73488 -53.74112 34458 ft 471 kts 215°
2026-04-28 15:51 47.67989 -53.79307 34452 ft 471 kts 215°
2026-04-28 15:51 47.62460 -53.84517 34465 ft 470 kts 215°
2026-04-28 15:52 47.56930 -53.89715 34453 ft 471 kts 215°
2026-04-28 15:52 47.51399 -53.94899 34457 ft 470 kts 215°
2026-04-28 15:53 47.45868 -54.00072 34466 ft 470 kts 215°
2026-04-28 15:53 47.40340 -54.05228 34467 ft 470 kts 215°
2026-04-28 15:54 47.38494 -54.06948 34467 ft 470 kts 215°
2026-04-28 15:54 47.34743 -54.10436 34466 ft 470 kts 215°
2026-04-28 15:55 47.29243 -54.15540 34471 ft 469 kts 215°
2026-04-28 15:55 47.23723 -54.20650 34466 ft 468 kts 215°
2026-04-28 15:56 47.18214 -54.25738 34471 ft 467 kts 215°
2026-04-28 15:56 47.12708 -54.30810 34464 ft 467 kts 215°
2026-04-28 15:57 47.08137 -54.35011 34472 ft 466 kts 215°
2026-04-28 15:57 47.02636 -54.40055 34481 ft 466 kts 215°
2026-04-28 15:58 46.97126 -54.45096 34477 ft 467 kts 215°
2026-04-28 15:58 46.91618 -54.50121 34472 ft 466 kts 216°
2026-04-28 15:59 46.86114 -54.55131 34473 ft 465 kts 216°
2026-04-28 15:59 46.80624 -54.60117 34479 ft 464 kts 216°
2026-04-28 16:00 46.75139 -54.65085 34478 ft 464 kts 216°
2026-04-28 16:00 46.69662 -54.70034 34483 ft 463 kts 216°
2026-04-28 16:01 46.64216 -54.74944 34483 ft 463 kts 216°
2026-04-28 16:01 46.58697 -54.79907 34481 ft 463 kts 216°
2026-04-28 16:02 46.53252 -54.84792 34474 ft 462 kts 216°
2026-04-28 16:02 46.47744 -54.89721 34481 ft 462 kts 216°
2026-04-28 16:03 46.42317 -54.94567 34482 ft 461 kts 216°
2026-04-28 16:03 46.36862 -54.99424 34475 ft 456 kts 217°
2026-04-28 16:04 46.31497 -55.04184 34475 ft 448 kts 217°
2026-04-28 16:04 46.26171 -55.08910 34486 ft 450 kts 217°
2026-04-28 16:05 46.20824 -55.13646 34483 ft 451 kts 217°
2026-04-28 16:05 46.15484 -55.18356 34476 ft 449 kts 218°
2026-04-28 16:06 46.10157 -55.23045 34478 ft 447 kts 218°
2026-04-28 16:06 46.04886 -55.27675 34480 ft 446 kts 218°
2026-04-28 16:07 45.99596 -55.32310 34472 ft 444 kts 219°
2026-04-28 16:08 45.91701 -55.39211 34481 ft 442 kts 219°
2026-04-28 16:08 45.86445 -55.43793 34482 ft 441 kts 219°
2026-04-28 16:09 45.78562 -55.50646 34479 ft 442 kts 219°
2026-04-28 16:10 45.70634 -55.57518 34482 ft 445 kts 219°
2026-04-28 16:10 45.62693 -55.64373 34478 ft 447 kts 219°
2026-04-28 16:11 45.52022 -55.73547 34478 ft 447 kts 219°
2026-04-28 16:12 45.44028 -55.80393 34462 ft 447 kts 219°
2026-04-28 16:13 45.35974 -55.87274 34483 ft 452 kts 218°
2026-04-28 16:14 45.25139 -55.96487 34475 ft 457 kts 218°
2026-04-28 16:15 45.14221 -56.05723 34477 ft 456 kts 218°
2026-04-28 16:15 45.08787 -56.10307 34466 ft 454 kts 218°
2026-04-28 16:16 45.00659 -56.17145 34470 ft 452 kts 218°
2026-04-28 16:17 44.92546 -56.23948 34453 ft 451 kts 218°
2026-04-28 16:17 44.87180 -56.28437 34467 ft 451 kts 217°
2026-04-28 16:18 44.81777 -56.32945 34466 ft 451 kts 217°
2026-04-28 16:18 44.76378 -56.37440 34469 ft 451 kts 217°
2026-04-28 16:19 44.70971 -56.41932 34456 ft 451 kts 218°
2026-04-28 16:19 44.65560 -56.46417 34462 ft 452 kts 218°
2026-04-28 16:20 44.60137 -56.50903 34456 ft 452 kts 217°
2026-04-28 16:20 44.54702 -56.55388 34447 ft 453 kts 218°
2026-04-28 16:21 44.49303 -56.59834 34449 ft 454 kts 218°
2026-04-28 16:21 44.43849 -56.64315 34454 ft 455 kts 217°
2026-04-28 16:22 44.38387 -56.68795 34440 ft 456 kts 217°
2026-04-28 16:22 44.32903 -56.73281 34453 ft 456 kts 217°
2026-04-28 16:23 44.27423 -56.77754 34457 ft 456 kts 217°
2026-04-28 16:23 44.21930 -56.82228 34441 ft 456 kts 217°
2026-04-28 16:24 44.16444 -56.86687 34443 ft 456 kts 216°
2026-04-28 16:24 44.11000 -56.91103 34440 ft 455 kts 216°
2026-04-28 16:25 44.05525 -56.95536 34446 ft 455 kts 216°
2026-04-28 16:25 44.00044 -56.99941 34433 ft 455 kts 214°
2026-04-28 16:26 43.94308 -57.03767 34440 ft 458 kts 211°
2026-04-28 16:26 43.88526 -57.07489 34440 ft 457 kts 211°
2026-04-28 16:27 43.82758 -57.11216 34441 ft 457 kts 211°
2026-04-28 16:28 43.74102 -57.16820 34435 ft 457 kts 211°
2026-04-28 16:28 43.68334 -57.20549 34410 ft 458 kts 211°
2026-04-28 16:29 43.59682 -57.26125 34423 ft 456 kts 211°
2026-04-28 16:30 43.51063 -57.31660 34426 ft 455 kts 211°
2026-04-28 16:30 43.45376 -57.35303 34426 ft 452 kts 211°
2026-04-28 16:31 43.39674 -57.38948 34410 ft 451 kts 211°
2026-04-28 16:31 43.33991 -57.42574 34417 ft 449 kts 211°
2026-04-28 16:32 43.28326 -57.46182 34414 ft 448 kts 210°
2026-04-28 16:32 43.19865 -57.51557 34410 ft 448 kts 210°
2026-04-28 16:33 43.16076 -57.53958 34406 ft 448 kts 210°
2026-04-28 16:33 43.08550 -57.58718 34407 ft 448 kts 210°
2026-04-28 16:34 43.02887 -57.62290 34390 ft 447 kts 210°
2026-04-28 16:34 42.97230 -57.65852 34399 ft 447 kts 210°
2026-04-28 16:35 42.91660 -57.69345 34385 ft 434 kts 210°
2026-04-28 16:35 42.86218 -57.72758 34385 ft 434 kts 210°
2026-04-28 16:36 42.80712 -57.76209 34397 ft 436 kts 210°
2026-04-28 16:36 42.75203 -57.79652 34374 ft 435 kts 210°
2026-04-28 16:37 42.69716 -57.83071 34378 ft 432 kts 210°
2026-04-28 16:38 42.61538 -57.88156 34370 ft 429 kts 210°
2026-04-28 16:38 42.56121 -57.91516 34366 ft 427 kts 210°
2026-04-28 16:39 42.50718 -57.94862 34366 ft 426 kts 210°
2026-04-28 16:39 42.45327 -57.98194 34355 ft 425 kts 210°
2026-04-28 16:40 42.39946 -58.01514 34350 ft 425 kts 210°
2026-04-28 16:40 42.34601 -58.04805 34350 ft 424 kts 210°
2026-04-28 16:41 42.29212 -58.08118 34350 ft 425 kts 210°
2026-04-28 16:41 42.23829 -58.11421 34342 ft 425 kts 210°
2026-04-28 16:42 42.18438 -58.14721 34342 ft 426 kts 210°
2026-04-28 16:42 42.13032 -58.18025 34338 ft 426 kts 210°
2026-04-28 16:43 42.07626 -58.21322 34328 ft 427 kts 210°
2026-04-28 16:43 42.02248 -58.24596 34332 ft 427 kts 210°
2026-04-28 16:44 41.96834 -58.27885 34326 ft 427 kts 210°
2026-04-28 16:44 41.92300 -58.30635 34314 ft 427 kts 210°
2026-04-28 16:45 41.86888 -58.33912 34304 ft 426 kts 210°
2026-04-28 16:45 41.81484 -58.37178 34308 ft 426 kts 209°
2026-04-28 16:46 41.76077 -58.40440 34290 ft 426 kts 209°
2026-04-28 16:46 41.70699 -58.43679 34296 ft 427 kts 209°
2026-04-28 16:47 41.65275 -58.46940 34290 ft 428 kts 209°
2026-04-28 16:47 41.59839 -58.50202 34272 ft 429 kts 209°
2026-04-28 16:48 41.54384 -58.53469 34273 ft 430 kts 209°
2026-04-28 16:48 41.48926 -58.56730 34272 ft 430 kts 209°
2026-04-28 16:49 41.43459 -58.59992 34261 ft 430 kts 208°
2026-04-28 16:49 41.37989 -58.63250 34254 ft 430 kts 208°
2026-04-28 16:50 41.32525 -58.66497 34250 ft 430 kts 208°
2026-04-28 16:50 41.27058 -58.69741 34241 ft 430 kts 208°
2026-04-28 16:51 41.21595 -58.72977 34239 ft 430 kts 208°
2026-04-28 16:51 41.16166 -58.76186 34237 ft 430 kts 208°
2026-04-28 16:52 41.10697 -58.79413 34220 ft 430 kts 208°
2026-04-28 16:52 41.05228 -58.82635 34220 ft 431 kts 207°
2026-04-28 16:53 40.99736 -58.85864 34216 ft 432 kts 207°
2026-04-28 16:53 40.94221 -58.89100 34197 ft 433 kts 207°
2026-04-28 16:54 40.88695 -58.92337 34205 ft 434 kts 207°
2026-04-28 16:54 40.83195 -58.95553 34200 ft 435 kts 207°
2026-04-28 16:55 40.77659 -58.98784 34189 ft 435 kts 206°
2026-04-28 16:55 40.72117 -59.02012 34185 ft 435 kts 206°
2026-04-28 16:56 40.66587 -59.05227 34178 ft 434 kts 206°
2026-04-28 16:56 40.61060 -59.08435 34173 ft 433 kts 206°
2026-04-28 16:57 40.55557 -59.11623 34172 ft 431 kts 206°
2026-04-28 16:57 40.50072 -59.14795 34172 ft 430 kts 206°
2026-04-28 16:58 40.44639 -59.17932 34165 ft 429 kts 206°
2026-04-28 16:58 40.39181 -59.21077 34157 ft 428 kts 206°
2026-04-28 16:59 40.33723 -59.24217 34153 ft 428 kts 206°
2026-04-28 16:59 40.28266 -59.27351 34136 ft 428 kts 206°
2026-04-28 17:00 40.22814 -59.30476 34141 ft 427 kts 206°
2026-04-28 17:00 40.17373 -59.33590 34143 ft 427 kts 206°
2026-04-28 17:01 40.11922 -59.36704 34130 ft 428 kts 206°
2026-04-28 17:01 40.06461 -59.39818 34132 ft 427 kts 206°
2026-04-28 17:02 40.01003 -59.42925 34121 ft 428 kts 206°
2026-04-28 17:02 39.95578 -59.46007 34102 ft 427 kts 205°
2026-04-28 17:03 39.87421 -59.50632 34123 ft 426 kts 205°
2026-04-28 17:03 39.81973 -59.53716 34109 ft 427 kts 205°
2026-04-28 17:04 39.73775 -59.58343 34102 ft 429 kts 205°
2026-04-28 17:05 39.65540 -59.62979 34075 ft 429 kts 205°
2026-04-28 17:06 39.57341 -59.67584 34090 ft 427 kts 204°
2026-04-28 17:06 39.49162 -59.72165 34061 ft 427 kts 204°
2026-04-28 17:07 39.43707 -59.75215 34064 ft 427 kts 203°
2026-04-28 17:07 39.38252 -59.78259 34070 ft 426 kts 203°
2026-04-28 17:08 39.32806 -59.81292 34067 ft 427 kts 203°
2026-04-28 17:08 39.27373 -59.84313 34047 ft 429 kts 203°
2026-04-28 17:09 39.21881 -59.87362 34044 ft 431 kts 203°
2026-04-28 17:09 39.16368 -59.90418 34054 ft 431 kts 202°
2026-04-28 17:10 39.10843 -59.93475 34032 ft 432 kts 203°
2026-04-28 17:10 39.05306 -59.96533 34041 ft 433 kts 203°
2026-04-28 17:11 38.99754 -59.99594 34041 ft 435 kts 203°
2026-04-28 17:11 38.94187 -60.02659 34023 ft 436 kts 202°
2026-04-28 17:12 38.88605 -60.05726 34043 ft 437 kts 202°
2026-04-28 17:12 38.82994 -60.08803 34015 ft 439 kts 202°
2026-04-28 17:13 38.77385 -60.11875 34022 ft 438 kts 202°
2026-04-28 17:13 38.71814 -60.14921 34015 ft 437 kts 202°
2026-04-28 17:14 38.66230 -60.17969 34006 ft 436 kts 202°
2026-04-28 17:14 38.60638 -60.21015 34011 ft 437 kts 202°
2026-04-28 17:15 38.55038 -60.24063 34001 ft 438 kts 201°
2026-04-28 17:15 38.49421 -60.27111 34002 ft 438 kts 201°
2026-04-28 17:16 38.43712 -60.29943 34274 ft 440 kts 199°
2026-04-28 17:16 38.40890 -60.31276 34729 ft 435 kts 199°
2026-04-28 17:16 38.38078 -60.32601 35303 ft 427 kts 199°
2026-04-28 17:17 38.35310 -60.33910 35837 ft 421 kts 199°
2026-04-28 17:17 38.32562 -60.35215 35982 ft 423 kts 199°
2026-04-28 17:17 38.27038 -60.37855 35968 ft 422 kts 200°
2026-04-28 17:18 38.21584 -60.40470 35959 ft 415 kts 199°
2026-04-28 17:18 38.16203 -60.43048 35958 ft 411 kts 199°
2026-04-28 17:19 38.10867 -60.45600 35962 ft 409 kts 199°
2026-04-28 17:19 38.05535 -60.48145 35960 ft 416 kts 199°
2026-04-28 17:20 38.00964 -60.50324 35961 ft 420 kts 199°
2026-04-28 17:20 37.94601 -60.53355 35946 ft 422 kts 199°
2026-04-28 17:21 37.89090 -60.55973 35930 ft 423 kts 199°
2026-04-28 17:22 37.80876 -60.59866 35917 ft 417 kts 199°
2026-04-28 17:22 37.75464 -60.62428 35929 ft 414 kts 199°
2026-04-28 17:23 37.67392 -60.66241 35908 ft 415 kts 199°
2026-04-28 17:23 37.61919 -60.68819 35928 ft 424 kts 199°
2026-04-28 17:24 37.56351 -60.71439 35912 ft 428 kts 199°
2026-04-28 17:24 37.50771 -60.74062 35904 ft 428 kts 199°
2026-04-28 17:25 37.42426 -60.77977 35898 ft 428 kts 198°
2026-04-28 17:26 37.36847 -60.80589 35895 ft 427 kts 198°
2026-04-28 17:26 37.31273 -60.83194 35892 ft 426 kts 198°
2026-04-28 17:27 37.25721 -60.85785 35882 ft 425 kts 198°
2026-04-28 17:27 37.20186 -60.88363 35871 ft 424 kts 198°
2026-04-28 17:28 37.14658 -60.90934 35871 ft 423 kts 198°
2026-04-28 17:28 37.06383 -60.94775 35865 ft 422 kts 198°
2026-04-28 17:29 37.00907 -60.97312 35866 ft 422 kts 198°
2026-04-28 17:30 36.92630 -61.01139 35853 ft 423 kts 198°
2026-04-28 17:30 36.85273 -61.04534 35871 ft 424 kts 198°
2026-04-28 17:31 36.76933 -61.08373 35843 ft 426 kts 197°
2026-04-28 17:32 36.68592 -61.12204 35821 ft 426 kts 197°
2026-04-28 17:32 36.63029 -61.14756 35822 ft 425 kts 197°
2026-04-28 17:33 36.57519 -61.17279 35823 ft 424 kts 197°
2026-04-28 17:33 36.52880 -61.19399 35826 ft 424 kts 197°
2026-04-28 17:34 36.46447 -61.22334 35813 ft 423 kts 197°
2026-04-28 17:34 36.40953 -61.24839 35808 ft 423 kts 197°
2026-04-28 17:35 36.35440 -61.27345 35821 ft 421 kts 197°
2026-04-28 17:35 36.29938 -61.29844 35826 ft 421 kts 197°
2026-04-28 17:36 36.24434 -61.32341 35832 ft 421 kts 197°
2026-04-28 17:36 36.18926 -61.34835 35826 ft 423 kts 198°
2026-04-28 17:37 36.13371 -61.37346 35835 ft 427 kts 198°
2026-04-28 17:37 36.07761 -61.39879 35835 ft 430 kts 198°
2026-04-28 17:38 36.02116 -61.42424 35830 ft 433 kts 198°
2026-04-28 17:38 35.96453 -61.44974 35827 ft 434 kts 199°
2026-04-28 17:39 35.90765 -61.47530 35829 ft 435 kts 199°
2026-04-28 17:40 35.82261 -61.51346 35837 ft 435 kts 199°
2026-04-28 17:40 35.76565 -61.53896 35826 ft 435 kts 199°
2026-04-28 17:41 35.70865 -61.56445 35844 ft 436 kts 199°
2026-04-28 17:41 35.65167 -61.58988 35842 ft 436 kts 199°
2026-04-28 17:42 35.59464 -61.61530 35844 ft 436 kts 199°
2026-04-28 17:42 35.53760 -61.64068 35842 ft 436 kts 199°
2026-04-28 17:43 35.48054 -61.66604 35852 ft 436 kts 199°
2026-04-28 17:43 35.42335 -61.69141 35858 ft 437 kts 199°
2026-04-28 17:44 35.36656 -61.71657 35844 ft 437 kts 200°
2026-04-28 17:44 35.30891 -61.74207 35857 ft 438 kts 200°
2026-04-28 17:45 35.25199 -61.76722 35859 ft 438 kts 200°
2026-04-28 17:45 35.19421 -61.79270 35862 ft 439 kts 200°
2026-04-28 17:46 35.13712 -61.81783 35859 ft 439 kts 200°
2026-04-28 17:46 35.07955 -61.84315 35867 ft 440 kts 200°
2026-04-28 17:47 35.02184 -61.86849 35870 ft 441 kts 200°
2026-04-28 17:47 34.96408 -61.89381 35868 ft 441 kts 200°
2026-04-28 17:48 34.90622 -61.91914 35882 ft 442 kts 200°
2026-04-28 17:48 34.84825 -61.94448 35878 ft 444 kts 200°
2026-04-28 17:49 34.78995 -61.96992 35877 ft 446 kts 200°
2026-04-28 17:49 34.73148 -61.99539 35873 ft 447 kts 201°
2026-04-28 17:50 34.67282 -62.02092 35882 ft 448 kts 201°
2026-04-28 17:50 34.61443 -62.04630 35880 ft 449 kts 201°
2026-04-28 17:51 34.55558 -62.07182 35868 ft 449 kts 201°
2026-04-28 17:51 34.49677 -62.09731 35885 ft 449 kts 201°
2026-04-28 17:52 34.43798 -62.12274 35887 ft 448 kts 201°
2026-04-28 17:52 34.35428 -62.17195 35870 ft 445 kts 212°
2026-04-28 17:53 34.30093 -62.20981 35886 ft 444 kts 211°
2026-04-28 17:53 34.24776 -62.24721 35896 ft 445 kts 212°
2026-04-28 17:54 34.19406 -62.28480 35897 ft 447 kts 212°
2026-04-28 17:54 34.14019 -62.32241 35890 ft 447 kts 212°
2026-04-28 17:55 34.08632 -62.35997 35896 ft 448 kts 212°
2026-04-28 17:55 34.03229 -62.39760 35899 ft 448 kts 212°
2026-04-28 17:56 33.97827 -62.43516 35899 ft 448 kts 212°
2026-04-28 17:56 33.92425 -62.47266 35897 ft 448 kts 212°
2026-04-28 17:57 33.87021 -62.51012 35910 ft 448 kts 212°
2026-04-28 17:57 33.81616 -62.54754 35910 ft 449 kts 213°
2026-04-28 17:58 33.76188 -62.58507 35882 ft 451 kts 213°
2026-04-28 17:58 33.70745 -62.62264 35911 ft 452 kts 213°
2026-04-28 17:59 33.65284 -62.66028 35922 ft 453 kts 213°
2026-04-28 17:59 33.60913 -62.69036 35921 ft 454 kts 213°
2026-04-28 18:00 33.56690 -62.71939 35900 ft 455 kts 213°
2026-04-28 18:00 33.51663 -62.75390 35920 ft 454 kts 213°
2026-04-28 18:01 33.48043 -62.77872 35922 ft 454 kts 213°
2026-04-28 18:01 33.45096 -62.79892 35924 ft 454 kts 213°
2026-04-28 18:02 33.42162 -62.81900 35922 ft 454 kts 213°
2026-04-28 18:02 33.38267 -62.84564 35923 ft 455 kts 214°
2026-04-28 18:03 33.32091 -62.88783 35929 ft 456 kts 214°
2026-04-28 18:03 33.29169 -62.90778 35942 ft 458 kts 214°
2026-04-28 18:04 33.24801 -62.93756 35967 ft 459 kts 214°
2026-04-28 18:04 33.20538 -62.96659 35949 ft 461 kts 214°
2026-04-28 18:05 33.15900 -62.99813 35932 ft 462 kts 214°
2026-04-28 18:05 33.15179 -63.00303 35895 ft 462 kts 214°
2026-04-28 18:06 33.12725 -63.01969 35929 ft 461 kts 214°
2026-04-28 18:06 33.09340 -63.04265 35940 ft 462 kts 214°
2026-04-28 18:07 33.08899 -63.04565 35937 ft 462 kts 214°
2026-04-28 18:07 33.03668 -63.08111 35944 ft 462 kts 214°
2026-04-28 18:08 33.01429 -63.09628 35943 ft 462 kts 214°
2026-04-28 18:08 32.99151 -63.11169 35944 ft 462 kts 214°
2026-04-28 18:09 32.96899 -63.12692 35944 ft 462 kts 214°
2026-04-28 18:09 32.93805 -63.14783 35950 ft 463 kts 215°
2026-04-28 18:10 32.87507 -63.19036 35952 ft 465 kts 215°
2026-04-28 18:10 32.83018 -63.22064 35948 ft 466 kts 215°
2026-04-28 18:11 32.77373 -63.25864 35954 ft 467 kts 215°
2026-04-28 18:11 32.71708 -63.29672 35939 ft 467 kts 215°
2026-04-28 18:12 32.66045 -63.33473 35954 ft 468 kts 215°
2026-04-28 18:12 32.60407 -63.37253 35959 ft 468 kts 215°
2026-04-28 18:13 32.54731 -63.41052 35961 ft 469 kts 215°
2026-04-28 18:13 32.49056 -63.44843 35959 ft 469 kts 216°
2026-04-28 18:14 32.43356 -63.48649 35967 ft 471 kts 216°
2026-04-28 18:14 32.37627 -63.52469 35971 ft 474 kts 216°
2026-04-28 18:15 32.31858 -63.56308 35930 ft 476 kts 216°
2026-04-28 18:15 32.26065 -63.60156 35964 ft 477 kts 216°
2026-04-28 18:16 32.20263 -63.64004 35974 ft 479 kts 216°
2026-04-28 18:16 32.14491 -63.67827 35981 ft 479 kts 216°
2026-04-28 18:17 32.08674 -63.71675 35957 ft 479 kts 216°
2026-04-28 18:17 32.02864 -63.75511 35968 ft 479 kts 216°
2026-04-28 18:18 31.97031 -63.79360 35994 ft 481 kts 216°
2026-04-28 18:18 31.92172 -63.82562 35996 ft 483 kts 216°
2026-04-28 18:19 31.85303 -63.87080 35988 ft 484 kts 216°
2026-04-28 18:19 31.79408 -63.90951 35995 ft 486 kts 216°
2026-04-28 18:20 31.73525 -63.94808 35995 ft 487 kts 216°
2026-04-28 18:20 31.67596 -63.98690 35972 ft 488 kts 216°
2026-04-28 18:21 31.61678 -64.02557 35999 ft 487 kts 216°
2026-04-28 18:21 31.55740 -64.06433 35987 ft 488 kts 216°
2026-04-28 18:22 31.49794 -64.10310 36009 ft 489 kts 216°
2026-04-28 18:22 31.43832 -64.14192 36001 ft 491 kts 216°
2026-04-28 18:23 31.37849 -64.18080 36011 ft 492 kts 216°
2026-04-28 18:23 31.31886 -64.21949 36015 ft 493 kts 216°
2026-04-28 18:24 31.26859 -64.25206 36014 ft 493 kts 216°
2026-04-28 18:24 31.19876 -64.29725 36013 ft 493 kts 216°
2026-04-28 18:25 31.13871 -64.33604 36013 ft 493 kts 216°
2026-04-28 18:26 31.04868 -64.39411 36021 ft 493 kts 216°
2026-04-28 18:26 30.98854 -64.43283 35999 ft 494 kts 216°
2026-04-28 18:27 30.92838 -64.47151 36021 ft 495 kts 216°
2026-04-28 18:27 30.86802 -64.51026 36027 ft 496 kts 216°
2026-04-28 18:28 30.80752 -64.54904 36030 ft 496 kts 216°
2026-04-28 18:28 30.74696 -64.58780 36033 ft 496 kts 216°
2026-04-28 18:29 30.68646 -64.62645 36029 ft 496 kts 216°
2026-04-28 18:29 30.62633 -64.66482 36033 ft 496 kts 216°
2026-04-28 18:30 30.56582 -64.70339 35996 ft 495 kts 216°
2026-04-28 18:30 30.50556 -64.74173 36036 ft 494 kts 215°
2026-04-28 18:31 30.44529 -64.78003 36044 ft 493 kts 215°
2026-04-28 18:31 30.38515 -64.81820 36044 ft 493 kts 215°
2026-04-28 18:32 30.32495 -64.85635 36027 ft 492 kts 215°
2026-04-28 18:32 30.26527 -64.89411 36041 ft 492 kts 215°
2026-04-28 18:33 30.20527 -64.93203 36042 ft 491 kts 215°
2026-04-28 18:33 30.14523 -64.96991 36047 ft 491 kts 215°
2026-04-28 18:34 30.08515 -65.00779 36049 ft 492 kts 214°
2026-04-28 18:34 30.02498 -65.04564 36049 ft 493 kts 214°
2026-04-28 18:35 29.96478 -65.08347 36046 ft 493 kts 214°
2026-04-28 18:35 29.90454 -65.12127 36055 ft 493 kts 214°
2026-04-28 18:36 29.84423 -65.15906 36050 ft 493 kts 214°
2026-04-28 18:36 29.78401 -65.19674 36057 ft 492 kts 214°
2026-04-28 18:37 29.72421 -65.23411 36056 ft 492 kts 214°
2026-04-28 18:37 29.66395 -65.27172 36060 ft 492 kts 214°
2026-04-28 18:38 29.60381 -65.30921 36038 ft 491 kts 213°
2026-04-28 18:38 29.54373 -65.34660 36060 ft 491 kts 213°
2026-04-28 18:39 29.48359 -65.38400 36066 ft 492 kts 213°
2026-04-28 18:39 29.42331 -65.42134 36066 ft 493 kts 212°
2026-04-28 18:40 29.36186 -65.45561 36059 ft 495 kts 210°
2026-04-28 18:40 29.29948 -65.48904 36062 ft 494 kts 210°
2026-04-28 18:41 29.23721 -65.52247 36071 ft 494 kts 210°
2026-04-28 18:41 29.17510 -65.55602 36045 ft 493 kts 210°
2026-04-28 18:42 29.11311 -65.58956 36062 ft 491 kts 210°
2026-04-28 18:42 29.05147 -65.62288 36053 ft 489 kts 210°
2026-04-28 18:43 28.98990 -65.65613 36080 ft 489 kts 210°
2026-04-28 18:43 28.92831 -65.68933 36061 ft 490 kts 210°
2026-04-28 18:44 28.86664 -65.72252 36076 ft 490 kts 210°
2026-04-28 18:44 28.77404 -65.77227 36077 ft 490 kts 210°
2026-04-28 18:45 28.71268 -65.80519 36076 ft 490 kts 210°
2026-04-28 18:45 28.65105 -65.83820 36057 ft 488 kts 209°
2026-04-28 18:46 28.58966 -65.87103 36066 ft 486 kts 209°
2026-04-28 18:46 28.52856 -65.90368 36071 ft 484 kts 209°
2026-04-28 18:47 28.46765 -65.93619 36070 ft 483 kts 209°
2026-04-28 18:47 28.40683 -65.96862 36086 ft 483 kts 209°
2026-04-28 18:48 28.34597 -66.00101 36070 ft 484 kts 209°
2026-04-28 18:48 28.28500 -66.03343 36080 ft 484 kts 209°
2026-04-28 18:49 28.24417 -66.05512 36080 ft 485 kts 209°
2026-04-28 18:49 28.16270 -66.09833 36077 ft 485 kts 209°
2026-04-28 18:50 28.10151 -66.13073 36080 ft 485 kts 209°
2026-04-28 18:50 28.04030 -66.16310 36084 ft 485 kts 209°
2026-04-28 18:51 27.97952 -66.19521 36087 ft 485 kts 209°
2026-04-28 18:51 27.91829 -66.22751 36074 ft 484 kts 209°
2026-04-28 18:52 27.85726 -66.25967 36071 ft 483 kts 209°
2026-04-28 18:52 27.79624 -66.29179 36080 ft 483 kts 209°
2026-04-28 18:53 27.73532 -66.32381 36082 ft 483 kts 209°
2026-04-28 18:53 27.67430 -66.35584 36073 ft 483 kts 209°
2026-04-28 18:54 27.61332 -66.38782 36085 ft 483 kts 209°
2026-04-28 18:54 27.55236 -66.41974 36084 ft 483 kts 209°
2026-04-28 18:55 27.50168 -66.44625 36084 ft 483 kts 209°
2026-04-28 18:55 27.43032 -66.48353 36068 ft 484 kts 208°
2026-04-28 18:56 27.36920 -66.51543 36086 ft 485 kts 208°
2026-04-28 18:56 27.31829 -66.54196 36087 ft 486 kts 208°
2026-04-28 18:57 27.25688 -66.57393 36081 ft 487 kts 208°
2026-04-28 18:57 27.19521 -66.60600 36070 ft 487 kts 208°
2026-04-28 18:58 27.13399 -66.63779 36085 ft 488 kts 208°
2026-04-28 18:58 27.07230 -66.66979 36088 ft 489 kts 208°
2026-04-28 18:59 27.01054 -66.70178 36087 ft 489 kts 208°
2026-04-28 18:59 26.94870 -66.73377 36087 ft 489 kts 208°
2026-04-28 19:00 26.88687 -66.76573 36087 ft 489 kts 208°
2026-04-28 19:00 26.82508 -66.79762 36092 ft 489 kts 208°
2026-04-28 19:01 26.76326 -66.82949 36087 ft 489 kts 208°
2026-04-28 19:01 26.70145 -66.86132 36086 ft 489 kts 208°
2026-04-28 19:02 26.64016 -66.89284 36088 ft 487 kts 208°
2026-04-28 19:02 26.57862 -66.92445 36084 ft 486 kts 207°
2026-04-28 19:03 26.51723 -66.95594 36087 ft 485 kts 207°
2026-04-28 19:03 26.45577 -66.98744 36087 ft 485 kts 207°
2026-04-28 19:04 26.39436 -67.01888 36084 ft 485 kts 208°
2026-04-28 19:04 26.33351 -67.04999 36086 ft 484 kts 208°
2026-04-28 19:05 26.27241 -67.08119 36085 ft 483 kts 208°
2026-04-28 19:05 26.21133 -67.11234 36086 ft 482 kts 208°
2026-04-28 19:06 26.15032 -67.14343 36046 ft 482 kts 208°
2026-04-28 19:06 26.08949 -67.17438 36051 ft 480 kts 208°
2026-04-28 19:07 26.02883 -67.20522 36053 ft 478 kts 208°
2026-04-28 19:07 25.96839 -67.23592 36052 ft 477 kts 208°
2026-04-28 19:08 25.90780 -67.26665 36067 ft 478 kts 208°
2026-04-28 19:08 25.84715 -67.29738 36068 ft 480 kts 208°
2026-04-28 19:09 25.78663 -67.32801 36063 ft 482 kts 208°
2026-04-28 19:09 25.72546 -67.35893 36066 ft 483 kts 208°
2026-04-28 19:10 25.66426 -67.38982 36063 ft 484 kts 207°
2026-04-28 19:10 25.60322 -67.42057 36052 ft 476 kts 209°
2026-04-28 19:11 25.54356 -67.45059 36060 ft 468 kts 209°
2026-04-28 19:11 25.48452 -67.48033 36067 ft 468 kts 209°
2026-04-28 19:12 25.42515 -67.51021 36064 ft 470 kts 209°
2026-04-28 19:12 25.36555 -67.54014 36055 ft 471 kts 210°
2026-04-28 19:13 25.30600 -67.57001 36055 ft 470 kts 209°
2026-04-28 19:13 25.24644 -67.59984 36060 ft 470 kts 209°
2026-04-28 19:14 25.18689 -67.62965 36063 ft 469 kts 209°
2026-04-28 19:14 25.12739 -67.65940 36062 ft 469 kts 209°
2026-04-28 19:15 25.06812 -67.68897 36054 ft 462 kts 210°
2026-04-28 19:15 25.02025 -67.71281 36058 ft 456 kts 210°
2026-04-28 19:16 24.95260 -67.74656 36062 ft 457 kts 210°
2026-04-28 19:16 24.89457 -67.77549 36064 ft 458 kts 210°
2026-04-28 19:17 24.83642 -67.80442 36038 ft 459 kts 210°
2026-04-28 19:17 24.77862 -67.83312 36050 ft 457 kts 210°
2026-04-28 19:18 24.72065 -67.86189 36057 ft 456 kts 210°
2026-04-28 19:18 24.66279 -67.89057 36057 ft 455 kts 210°
2026-04-28 19:19 24.60506 -67.91917 36058 ft 455 kts 210°
2026-04-28 19:19 24.54737 -67.94771 36067 ft 453 kts 211°
2026-04-28 19:20 24.49006 -67.97603 36061 ft 450 kts 211°
2026-04-28 19:20 24.43311 -68.00415 36057 ft 448 kts 211°
2026-04-28 19:21 24.37674 -68.03196 36056 ft 446 kts 211°
2026-04-28 19:21 24.32013 -68.05987 36059 ft 445 kts 211°
2026-04-28 19:22 24.27318 -68.08299 36056 ft 444 kts 211°
2026-04-28 19:22 24.20740 -68.11534 36051 ft 442 kts 211°
2026-04-28 19:23 24.15136 -68.14288 36057 ft 441 kts 211°
2026-04-28 19:23 24.09545 -68.17034 36059 ft 440 kts 211°
2026-04-28 19:24 24.03966 -68.19772 36065 ft 440 kts 211°
2026-04-28 19:24 23.98369 -68.22521 36061 ft 439 kts 212°
2026-04-28 19:25 23.93366 -68.26144 36065 ft 427 kts 225°
2026-04-28 19:25 23.89268 -68.30713 36057 ft 422 kts 236°
2026-04-28 19:26 23.85696 -68.35804 36059 ft 423 kts 236°
2026-04-28 19:26 23.82106 -68.40922 36058 ft 425 kts 236°
2026-04-28 19:27 23.78486 -68.46032 36058 ft 426 kts 236°
2026-04-28 19:27 23.74847 -68.51143 36053 ft 426 kts 236°
2026-04-28 19:28 23.71208 -68.56248 36053 ft 426 kts 236°
2026-04-28 19:28 23.67570 -68.61347 36060 ft 426 kts 236°
2026-04-28 19:29 23.64550 -68.65577 36059 ft 425 kts 236°
2026-04-28 19:29 23.60174 -68.71424 36049 ft 428 kts 228°
2026-04-28 19:30 23.55343 -68.75332 36061 ft 437 kts 217°
2026-04-28 19:30 23.49764 -68.78037 36035 ft 446 kts 207°
2026-04-28 19:31 23.43901 -68.80278 36052 ft 446 kts 206°
2026-04-28 19:31 23.38044 -68.82515 36055 ft 446 kts 207°
2026-04-28 19:32 23.32210 -68.84782 36060 ft 445 kts 207°
2026-04-28 19:32 23.26371 -68.87071 36060 ft 445 kts 207°
2026-04-28 19:33 23.20531 -68.89364 36060 ft 445 kts 207°
2026-04-28 19:33 23.14695 -68.91653 36056 ft 446 kts 207°
2026-04-28 19:34 23.08898 -68.93923 36058 ft 446 kts 207°
2026-04-28 19:34 23.03065 -68.96205 36057 ft 446 kts 207°
2026-04-28 19:35 22.97222 -68.98489 36057 ft 446 kts 207°
2026-04-28 19:35 22.91382 -69.00769 36043 ft 446 kts 207°
2026-04-28 19:36 22.85541 -69.03047 36051 ft 446 kts 207°
2026-04-28 19:36 22.79705 -69.05322 36055 ft 446 kts 207°
2026-04-28 19:37 22.75799 -69.06844 36056 ft 446 kts 207°
2026-04-28 19:37 22.68022 -69.09870 36049 ft 446 kts 207°
2026-04-28 19:38 22.62176 -69.12142 36038 ft 446 kts 207°
2026-04-28 19:38 22.56337 -69.14409 36047 ft 446 kts 207°
2026-04-28 19:39 22.50494 -69.16676 36046 ft 445 kts 207°
2026-04-28 19:39 22.44665 -69.18935 36047 ft 445 kts 207°
2026-04-28 19:40 22.38833 -69.21194 36050 ft 445 kts 206°
2026-04-28 19:40 22.33002 -69.23451 36048 ft 445 kts 206°
2026-04-28 19:41 22.27175 -69.25703 36052 ft 444 kts 206°
2026-04-28 19:41 22.21355 -69.27951 36049 ft 444 kts 206°
2026-04-28 19:42 22.16520 -69.29817 36047 ft 444 kts 206°
2026-04-28 19:42 22.10703 -69.32061 36048 ft 444 kts 206°
2026-04-28 19:43 22.04887 -69.34302 36031 ft 443 kts 206°
2026-04-28 19:43 21.99083 -69.36536 36045 ft 442 kts 206°
2026-04-28 19:44 21.93285 -69.38766 36047 ft 442 kts 206°
2026-04-28 19:44 21.87527 -69.40979 36046 ft 442 kts 206°
2026-04-28 19:45 21.81733 -69.43204 36045 ft 442 kts 206°
2026-04-28 19:45 21.75938 -69.45427 36026 ft 442 kts 206°
2026-04-28 19:46 21.70141 -69.47649 36038 ft 442 kts 206°
2026-04-28 19:46 21.64353 -69.49866 36040 ft 442 kts 206°
2026-04-28 19:47 21.58557 -69.52084 36042 ft 442 kts 206°
2026-04-28 19:47 21.52759 -69.54301 36045 ft 442 kts 206°
2026-04-28 19:48 21.46950 -69.56521 36015 ft 443 kts 206°
2026-04-28 19:48 21.41145 -69.58736 36032 ft 443 kts 206°
2026-04-28 19:49 21.35332 -69.60953 36050 ft 444 kts 206°
2026-04-28 19:49 21.29542 -69.63159 36037 ft 444 kts 206°
2026-04-28 19:50 21.20796 -69.66488 36039 ft 444 kts 206°
2026-04-28 19:51 21.14963 -69.68706 36031 ft 445 kts 205°
2026-04-28 19:51 21.09122 -69.70925 36038 ft 445 kts 205°
2026-04-28 19:52 21.03275 -69.73145 36035 ft 446 kts 205°
2026-04-28 19:52 20.97417 -69.75367 36033 ft 447 kts 205°
2026-04-28 19:53 20.91581 -69.77578 36030 ft 447 kts 205°
2026-04-28 19:53 20.85715 -69.79800 36018 ft 447 kts 205°
2026-04-28 19:54 20.79840 -69.82022 36027 ft 448 kts 205°
2026-04-28 19:54 20.73962 -69.84245 36030 ft 448 kts 205°
2026-04-28 19:55 20.68080 -69.86467 36032 ft 449 kts 205°
2026-04-28 19:55 20.62189 -69.88690 36031 ft 449 kts 205°
2026-04-28 19:56 20.56291 -69.90914 36008 ft 449 kts 205°
2026-04-28 19:56 20.50395 -69.93135 36025 ft 450 kts 205°
2026-04-28 19:57 20.44530 -69.95344 36024 ft 450 kts 205°
2026-04-28 19:57 20.38631 -69.97563 36024 ft 450 kts 205°
2026-04-28 19:58 20.32715 -69.99787 36025 ft 450 kts 205°
2026-04-28 19:58 20.26804 -70.02008 36024 ft 450 kts 205°
2026-04-28 19:59 20.20889 -70.04228 36022 ft 450 kts 205°
2026-04-28 19:59 20.15047 -70.06585 36027 ft 447 kts 208°
2026-04-28 19:59 20.12180 -70.07906 36194 ft 449 kts 208°
2026-04-28 20:00 20.09358 -70.09219 36538 ft 447 kts 209°
2026-04-28 20:00 20.06512 -70.10543 36931 ft 445 kts 209°
2026-04-28 20:00 20.03677 -70.11860 37302 ft 443 kts 209°
2026-04-28 20:00 20.00857 -70.13166 37639 ft 442 kts 209°
2026-04-28 20:01 19.98044 -70.14467 37891 ft 442 kts 208°
2026-04-28 20:01 19.92371 -70.17085 38000 ft 445 kts 208°
2026-04-28 20:02 19.86700 -70.19694 38013 ft 442 kts 208°
2026-04-28 20:02 19.81076 -70.22278 38016 ft 439 kts 208°
2026-04-28 20:03 19.75468 -70.24854 38017 ft 438 kts 208°
2026-04-28 20:03 19.69875 -70.27422 38015 ft 438 kts 208°
2026-04-28 20:04 19.64279 -70.29991 38009 ft 438 kts 208°
2026-04-28 20:04 19.58674 -70.32561 38017 ft 440 kts 208°
2026-04-28 20:05 19.53049 -70.35138 38010 ft 441 kts 208°
2026-04-28 20:05 19.47396 -70.37726 38005 ft 443 kts 208°
2026-04-28 20:06 19.41728 -70.40318 37999 ft 444 kts 208°
2026-04-28 20:06 19.36055 -70.42911 37982 ft 444 kts 208°
2026-04-28 20:07 19.30417 -70.45485 37991 ft 444 kts 208°
2026-04-28 20:07 19.24737 -70.48077 38001 ft 444 kts 208°
2026-04-28 20:08 19.19054 -70.50668 38009 ft 444 kts 208°
2026-04-28 20:08 19.13372 -70.53257 38016 ft 444 kts 208°
2026-04-28 20:09 19.07691 -70.55843 38050 ft 444 kts 208°
2026-04-28 20:09 19.02005 -70.58431 38046 ft 445 kts 208°
2026-04-28 20:10 18.96307 -70.61022 38065 ft 446 kts 208°
2026-04-28 20:10 18.90640 -70.63596 38073 ft 446 kts 208°
2026-04-28 20:11 18.84936 -70.66186 38064 ft 447 kts 208°
2026-04-28 20:11 18.79211 -70.68782 38068 ft 447 kts 208°
2026-04-28 20:12 18.73486 -70.71378 38056 ft 449 kts 208°
2026-04-28 20:12 18.67744 -70.73977 38054 ft 449 kts 208°
2026-04-28 20:13 18.62007 -70.76574 38028 ft 449 kts 208°
2026-04-28 20:13 18.56276 -70.79165 38028 ft 448 kts 208°
2026-04-28 20:14 18.50553 -70.81751 38006 ft 447 kts 208°
2026-04-28 20:14 18.44851 -70.84326 38002 ft 445 kts 208°
2026-04-28 20:15 18.39164 -70.86893 38008 ft 444 kts 208°
2026-04-28 20:15 18.33485 -70.89454 38004 ft 444 kts 207°
2026-04-28 20:16 18.27809 -70.92012 37998 ft 444 kts 208°
2026-04-28 20:16 18.22165 -70.94554 37999 ft 444 kts 207°
2026-04-28 20:17 18.16475 -70.97115 37995 ft 445 kts 207°
2026-04-28 20:17 18.10768 -70.99681 37992 ft 446 kts 207°
2026-04-28 20:18 18.05055 -71.02248 37999 ft 447 kts 207°
2026-04-28 20:18 17.99332 -71.04818 37998 ft 447 kts 207°
2026-04-28 20:19 17.93603 -71.07389 38003 ft 448 kts 207°
2026-04-28 20:19 17.87869 -71.09960 37992 ft 448 kts 207°
2026-04-28 20:20 17.82134 -71.12529 37979 ft 448 kts 207°
2026-04-28 20:20 17.76400 -71.15097 37986 ft 447 kts 207°
2026-04-28 20:21 17.70676 -71.17657 37986 ft 447 kts 207°
2026-04-28 20:21 17.64954 -71.20216 37986 ft 447 kts 207°
2026-04-28 20:22 17.59264 -71.22759 37980 ft 447 kts 207°
2026-04-28 20:22 17.53552 -71.25309 37980 ft 446 kts 207°
2026-04-28 20:23 17.47837 -71.27860 37974 ft 446 kts 207°
2026-04-28 20:23 17.42125 -71.30407 37978 ft 446 kts 207°
2026-04-28 20:24 17.36410 -71.32953 37976 ft 447 kts 207°
2026-04-28 20:24 17.30683 -71.35504 37975 ft 447 kts 207°
2026-04-28 20:25 17.24960 -71.38051 37977 ft 447 kts 207°
2026-04-28 20:25 17.19232 -71.40598 37978 ft 447 kts 207°
2026-04-28 20:26 17.13496 -71.43147 37980 ft 448 kts 207°
2026-04-28 20:26 17.07761 -71.45694 37980 ft 448 kts 207°
2026-04-28 20:27 17.02998 -71.47808 37977 ft 448 kts 207°
2026-04-28 20:27 16.97264 -71.50352 37975 ft 448 kts 207°
2026-04-28 20:28 16.91529 -71.52894 37974 ft 448 kts 207°
2026-04-28 20:28 16.85794 -71.55434 37967 ft 447 kts 207°
2026-04-28 20:29 16.80094 -71.57958 37976 ft 448 kts 207°
2026-04-28 20:29 16.74358 -71.60496 37969 ft 448 kts 207°
2026-04-28 20:30 16.68622 -71.63033 37970 ft 448 kts 207°
2026-04-28 20:30 16.62880 -71.65570 37971 ft 448 kts 207°
2026-04-28 20:31 16.57406 -71.68571 37973 ft 442 kts 217°
2026-04-28 20:31 16.52585 -71.72500 37966 ft 438 kts 226°
2026-04-28 20:32 16.48282 -71.76984 37975 ft 438 kts 228°
2026-04-28 20:32 16.44001 -71.81507 37970 ft 439 kts 227°
2026-04-28 20:33 16.39691 -71.86026 37970 ft 439 kts 227°
2026-04-28 20:33 16.35369 -71.90530 37964 ft 440 kts 227°
2026-04-28 20:34 16.31036 -71.95036 37968 ft 440 kts 227°
2026-04-28 20:34 16.26704 -71.99538 37967 ft 440 kts 227°
2026-04-28 20:35 16.22374 -72.04037 37961 ft 440 kts 227°
2026-04-28 20:35 16.18068 -72.08509 37968 ft 439 kts 227°
2026-04-28 20:36 16.13747 -72.12993 37964 ft 439 kts 227°
2026-04-28 20:36 16.09422 -72.17478 37961 ft 439 kts 227°
2026-04-28 20:37 16.05097 -72.21962 37959 ft 438 kts 227°
2026-04-28 20:37 16.00803 -72.26410 37959 ft 438 kts 227°
2026-04-28 20:38 15.96483 -72.30882 37955 ft 438 kts 227°
2026-04-28 20:38 15.92160 -72.35356 37953 ft 438 kts 227°
2026-04-28 20:39 15.87846 -72.39821 37958 ft 438 kts 227°
2026-04-28 20:39 15.83523 -72.44292 37957 ft 438 kts 227°
2026-04-28 20:40 15.79207 -72.48755 37957 ft 438 kts 227°
2026-04-28 20:40 15.74886 -72.53219 37952 ft 438 kts 227°
2026-04-28 20:41 15.70560 -72.57686 37953 ft 438 kts 227°
2026-04-28 20:41 15.66233 -72.62150 37956 ft 438 kts 227°
2026-04-28 20:42 15.61903 -72.66615 37941 ft 439 kts 227°
2026-04-28 20:42 15.57569 -72.71081 37950 ft 439 kts 227°
2026-04-28 20:43 15.53237 -72.75544 37948 ft 439 kts 227°
2026-04-28 20:43 15.48899 -72.80009 37946 ft 439 kts 227°
2026-04-28 20:44 15.44554 -72.84478 37943 ft 440 kts 227°
2026-04-28 20:44 15.40243 -72.88911 37943 ft 440 kts 227°
2026-04-28 20:45 15.35896 -72.93377 37942 ft 440 kts 227°
2026-04-28 20:45 15.31539 -72.97843 37931 ft 440 kts 227°
2026-04-28 20:46 15.27182 -73.02299 37944 ft 440 kts 227°
2026-04-28 20:46 15.22820 -73.06761 37940 ft 441 kts 227°
2026-04-28 20:47 15.18451 -73.11228 37940 ft 441 kts 227°
2026-04-28 20:47 15.14087 -73.15688 37940 ft 441 kts 227°
2026-04-28 20:48 15.09719 -73.20149 37937 ft 441 kts 227°
2026-04-28 20:48 15.05299 -73.24564 37937 ft 442 kts 225°
2026-04-28 20:49 15.00825 -73.28860 37921 ft 442 kts 225°
2026-04-28 20:49 14.96323 -73.33192 37935 ft 442 kts 225°
2026-04-28 20:50 14.91832 -73.37535 37937 ft 442 kts 225°
2026-04-28 20:50 14.87343 -73.41876 37928 ft 442 kts 225°
2026-04-28 20:51 14.82941 -73.46299 37925 ft 441 kts 227°
2026-04-28 20:51 14.78637 -73.50821 37929 ft 441 kts 227°
2026-04-28 20:52 14.74357 -73.55308 37926 ft 441 kts 227°
2026-04-28 20:52 14.70032 -73.59809 37926 ft 441 kts 227°
2026-04-28 20:53 14.63539 -73.66543 37936 ft 441 kts 227°
2026-04-28 20:53 14.59202 -73.71036 37926 ft 441 kts 227°
2026-04-28 20:54 14.54870 -73.75523 37924 ft 441 kts 227°
2026-04-28 20:54 14.50536 -73.80010 37923 ft 441 kts 227°
2026-04-28 20:55 14.46202 -73.84494 37921 ft 441 kts 227°
2026-04-28 20:55 14.41898 -73.88945 37920 ft 441 kts 227°
2026-04-28 20:56 14.37568 -73.93421 37921 ft 440 kts 227°
2026-04-28 20:56 14.33239 -73.97893 37911 ft 441 kts 227°
2026-04-28 20:57 14.28896 -74.02378 37924 ft 441 kts 227°
2026-04-28 20:57 14.24558 -74.06869 37915 ft 442 kts 227°
2026-04-28 20:58 14.20216 -74.11363 37916 ft 442 kts 227°
2026-04-28 20:58 14.15907 -74.15818 37915 ft 442 kts 227°
2026-04-28 20:59 14.11566 -74.20316 37915 ft 442 kts 227°
2026-04-28 20:59 14.07231 -74.24813 37912 ft 442 kts 227°
2026-04-28 21:00 14.02899 -74.29305 37915 ft 442 kts 227°
2026-04-28 21:00 13.98565 -74.33795 37912 ft 441 kts 227°
2026-04-28 21:01 13.94264 -74.38248 37909 ft 441 kts 227°
2026-04-28 21:01 13.89929 -74.42733 37910 ft 441 kts 227°
2026-04-28 21:02 13.85597 -74.47212 37910 ft 441 kts 227°
2026-04-28 21:02 13.81266 -74.51690 37907 ft 441 kts 227°
2026-04-28 21:03 13.76927 -74.56172 37910 ft 441 kts 227°
2026-04-28 21:03 13.72613 -74.60626 37910 ft 442 kts 227°
2026-04-28 21:04 13.68274 -74.65103 37902 ft 442 kts 226°
2026-04-28 21:04 13.63927 -74.69586 37902 ft 442 kts 226°
2026-04-28 21:05 13.59580 -74.74067 37903 ft 443 kts 226°
2026-04-28 21:05 13.55230 -74.78548 37899 ft 443 kts 226°
2026-04-28 21:06 13.50872 -74.83034 37899 ft 443 kts 226°
2026-04-28 21:06 13.46512 -74.87521 37898 ft 443 kts 226°
2026-04-28 21:07 13.42180 -74.91977 37896 ft 443 kts 226°
2026-04-28 21:07 13.37821 -74.96458 37887 ft 443 kts 226°
2026-04-28 21:08 13.33455 -75.00943 37893 ft 444 kts 226°
2026-04-28 21:08 13.29092 -75.05424 37895 ft 444 kts 226°
2026-04-28 21:09 13.24724 -75.09908 37893 ft 444 kts 226°
2026-04-28 21:09 13.20354 -75.14391 37891 ft 444 kts 226°
2026-04-28 21:10 13.15982 -75.18873 37891 ft 444 kts 226°
2026-04-28 21:10 13.11645 -75.23318 37892 ft 443 kts 226°
2026-04-28 21:11 13.07283 -75.27787 37909 ft 443 kts 226°
2026-04-28 21:11 13.02919 -75.32257 37894 ft 443 kts 226°
2026-04-28 21:12 12.98543 -75.36738 37886 ft 443 kts 226°
2026-04-28 21:12 12.94208 -75.41174 37875 ft 443 kts 226°
2026-04-28 21:13 12.89843 -75.45634 37875 ft 443 kts 226°
2026-04-28 21:13 12.85476 -75.50091 37898 ft 443 kts 225°
2026-04-28 21:14 12.81104 -75.54553 37902 ft 443 kts 225°
2026-04-28 21:14 12.77448 -75.58284 37874 ft 443 kts 225°
2026-04-28 21:15 12.73115 -75.62703 37864 ft 443 kts 225°
2026-04-28 21:15 12.68748 -75.67155 37873 ft 443 kts 225°
2026-04-28 21:16 12.64377 -75.71608 37876 ft 443 kts 225°
2026-04-28 21:16 12.60007 -75.76058 37874 ft 443 kts 225°
2026-04-28 21:17 12.55628 -75.80515 37883 ft 443 kts 225°
2026-04-28 21:17 12.51251 -75.84968 37877 ft 444 kts 225°
2026-04-28 21:18 12.46874 -75.89419 37879 ft 444 kts 225°
2026-04-28 21:18 12.42497 -75.93868 37863 ft 444 kts 225°
2026-04-28 21:19 12.38117 -75.98319 37873 ft 444 kts 225°
2026-04-28 21:19 12.33737 -76.02766 37866 ft 444 kts 225°
2026-04-28 21:20 12.29382 -76.07187 37874 ft 444 kts 225°
2026-04-28 21:20 12.25002 -76.11629 37874 ft 444 kts 225°
2026-04-28 21:21 12.20613 -76.16078 37864 ft 444 kts 225°
2026-04-28 21:21 12.16224 -76.20528 37864 ft 444 kts 225°
2026-04-28 21:22 12.11839 -76.24973 37863 ft 444 kts 225°
2026-04-28 21:22 12.07451 -76.29418 37852 ft 444 kts 225°
2026-04-28 21:23 12.03065 -76.33859 37862 ft 444 kts 224°
2026-04-28 21:23 11.98672 -76.38305 37866 ft 444 kts 224°
2026-04-28 21:24 11.94313 -76.42714 37864 ft 444 kts 224°
2026-04-28 21:24 11.89908 -76.47167 37869 ft 445 kts 224°
2026-04-28 21:25 11.85503 -76.51619 37871 ft 445 kts 224°
2026-04-28 21:25 11.81102 -76.56064 37866 ft 445 kts 224°
2026-04-28 21:26 11.76700 -76.60508 37858 ft 445 kts 224°
2026-04-28 21:26 11.72319 -76.64929 37843 ft 445 kts 224°
2026-04-28 21:27 11.67912 -76.69375 37856 ft 445 kts 224°
2026-04-28 21:27 11.63500 -76.73823 37857 ft 446 kts 224°
2026-04-28 21:28 11.59086 -76.78271 37856 ft 446 kts 224°
2026-04-28 21:28 11.54666 -76.82723 37857 ft 446 kts 224°
2026-04-28 21:29 11.50248 -76.87172 37860 ft 447 kts 224°
2026-04-28 21:29 11.45826 -76.91623 37863 ft 447 kts 224°
2026-04-28 21:30 11.41427 -76.96049 37868 ft 447 kts 224°
2026-04-28 21:30 11.37001 -77.00503 37860 ft 447 kts 225°
2026-04-28 21:31 11.32681 -77.05059 37865 ft 447 kts 226°
2026-04-28 21:31 11.28405 -77.09660 37854 ft 447 kts 226°
2026-04-28 21:32 11.24124 -77.14242 37859 ft 447 kts 226°
2026-04-28 21:32 11.19827 -77.18820 37858 ft 446 kts 226°
2026-04-28 21:33 11.15529 -77.23391 37866 ft 446 kts 226°
2026-04-28 21:33 11.11234 -77.27958 37851 ft 447 kts 226°
2026-04-28 21:34 11.06962 -77.32500 37861 ft 447 kts 226°
2026-04-28 21:34 11.02665 -77.37067 37852 ft 446 kts 226°
2026-04-28 21:35 10.98371 -77.41628 37854 ft 446 kts 226°
2026-04-28 21:35 10.93995 -77.46099 37850 ft 446 kts 225°
2026-04-28 21:36 10.89562 -77.50513 37856 ft 445 kts 224°
2026-04-28 21:36 10.85128 -77.54937 37867 ft 445 kts 225°
2026-04-28 21:37 10.80715 -77.59358 37868 ft 445 kts 225°
2026-04-28 21:37 10.76331 -77.63758 37858 ft 446 kts 225°
2026-04-28 21:38 10.71917 -77.68187 37869 ft 446 kts 225°
2026-04-28 21:38 10.67497 -77.72620 37866 ft 446 kts 225°
2026-04-28 21:39 10.63066 -77.77061 37866 ft 447 kts 225°
2026-04-28 21:39 10.58634 -77.81502 37859 ft 447 kts 225°
2026-04-28 21:40 10.54234 -77.85908 37869 ft 447 kts 225°
2026-04-28 21:40 10.49801 -77.90345 37868 ft 447 kts 225°
2026-04-28 21:41 10.45365 -77.94784 37864 ft 447 kts 225°
2026-04-28 21:41 10.40929 -77.99222 37865 ft 448 kts 225°
2026-04-28 21:42 10.36485 -78.03664 37869 ft 448 kts 225°
2026-04-28 21:42 10.32074 -78.08073 37871 ft 447 kts 225°
2026-04-28 21:43 10.27637 -78.12505 37868 ft 447 kts 225°
2026-04-28 21:43 10.23207 -78.16928 37867 ft 446 kts 225°
2026-04-28 21:44 10.18786 -78.21341 37870 ft 446 kts 225°
2026-04-28 21:44 10.14348 -78.25769 37262 ft 454 kts 225°
2026-04-28 21:45 10.12087 -78.28024 36600 ft 455 kts 225°
2026-04-28 21:45 10.09826 -78.30279 35843 ft 455 kts 225°
2026-04-28 21:45 10.07570 -78.32528 35017 ft 456 kts 225°
2026-04-28 21:45 10.05298 -78.34792 34141 ft 459 kts 225°
2026-04-28 21:46 10.03012 -78.37071 33145 ft 462 kts 224°
2026-04-28 21:46 10.00712 -78.39362 32170 ft 465 kts 224°
2026-04-28 21:46 9.98407 -78.41659 31462 ft 462 kts 224°
2026-04-28 21:46 9.96119 -78.43938 30773 ft 459 kts 224°
2026-04-28 21:47 9.93843 -78.46204 30123 ft 457 kts 224°
2026-04-28 21:47 9.91581 -78.48456 29409 ft 454 kts 224°
2026-04-28 21:47 9.89333 -78.50693 28728 ft 451 kts 224°
2026-04-28 21:47 9.87131 -78.52884 28070 ft 448 kts 224°
2026-04-28 21:48 9.84888 -78.55116 27428 ft 444 kts 224°
2026-04-28 21:48 9.82719 -78.57273 26826 ft 441 kts 224°
2026-04-28 21:48 9.80529 -78.59451 26215 ft 439 kts 224°
2026-04-28 21:48 9.78358 -78.61610 25611 ft 437 kts 224°
2026-04-28 21:49 9.76188 -78.63767 24994 ft 435 kts 224°
2026-04-28 21:49 9.74030 -78.65912 24397 ft 434 kts 224°
2026-04-28 21:49 9.71874 -78.68054 23805 ft 433 kts 224°
2026-04-28 21:49 9.69723 -78.70192 23161 ft 433 kts 224°
2026-04-28 21:50 9.67577 -78.72324 22488 ft 431 kts 224°
2026-04-28 21:50 9.65447 -78.74440 21899 ft 428 kts 224°
2026-04-28 21:50 9.63323 -78.76548 21316 ft 425 kts 224°
2026-04-28 21:50 9.61218 -78.78638 20746 ft 422 kts 224°
2026-04-28 21:51 9.59127 -78.80714 20184 ft 420 kts 224°
2026-04-28 21:51 9.57043 -78.82782 19618 ft 418 kts 224°
2026-04-28 21:51 9.54969 -78.84840 19056 ft 417 kts 224°
2026-04-28 21:51 9.52904 -78.86889 18497 ft 415 kts 224°
2026-04-28 21:52 9.50868 -78.88909 17955 ft 413 kts 224°
2026-04-28 21:52 9.48820 -78.90941 17428 ft 410 kts 224°
2026-04-28 21:52 9.46786 -78.92958 16875 ft 407 kts 224°
2026-04-28 21:52 9.44766 -78.94960 16332 ft 405 kts 224°
2026-04-28 21:53 9.42755 -78.96955 15793 ft 404 kts 224°
2026-04-28 21:53 9.40751 -78.98941 15246 ft 402 kts 224°
2026-04-28 21:53 9.38757 -79.00917 14728 ft 401 kts 224°
2026-04-28 21:53 9.36760 -79.02895 14174 ft 401 kts 224°
2026-04-28 21:54 9.34775 -79.04862 13832 ft 395 kts 224°
2026-04-28 21:54 9.32836 -79.06784 13646 ft 384 kts 223°
2026-04-28 21:54 9.30951 -79.08652 13457 ft 374 kts 223°
2026-04-28 21:54 9.29112 -79.10473 13279 ft 365 kts 223°
2026-04-28 21:55 9.27324 -79.12242 13137 ft 355 kts 223°
2026-04-28 21:55 9.25562 -79.13954 12912 ft 347 kts 220°
2026-04-28 21:55 9.23677 -79.15387 12684 ft 340 kts 213°
2026-04-28 21:55 9.21704 -79.16670 12473 ft 331 kts 211°
2026-04-28 21:56 9.19778 -79.17889 11923 ft 326 kts 211°
2026-04-28 21:56 9.17863 -79.19113 11361 ft 322 kts 212°
2026-04-28 21:56 9.15997 -79.20328 10940 ft 314 kts 212°
2026-04-28 21:56 9.14185 -79.21522 10557 ft 310 kts 212°
2026-04-28 21:57 9.12379 -79.22721 10176 ft 310 kts 213°
2026-04-28 21:57 9.10571 -79.23926 9795 ft 312 kts 213°
2026-04-28 21:57 9.08758 -79.25138 9381 ft 313 kts 213°
2026-04-28 21:57 9.06938 -79.26356 8974 ft 314 kts 213°
2026-04-28 21:58 9.05116 -79.27574 8595 ft 312 kts 213°
2026-04-28 21:58 9.03351 -79.28754 8171 ft 296 kts 213°
2026-04-28 21:58 9.01691 -79.29837 7948 ft 279 kts 210°
2026-04-28 21:58 8.99990 -79.30794 7475 ft 278 kts 208°
2026-04-28 21:59 8.98296 -79.31699 7122 ft 279 kts 208°
2026-04-28 21:59 8.96607 -79.32603 6999 ft 271 kts 208°
2026-04-28 21:59 8.94924 -79.33512 6618 ft 276 kts 208°
2026-04-28 22:00 8.91530 -79.35363 5933 ft 278 kts 209°
2026-04-28 22:00 8.89823 -79.36298 5594 ft 279 kts 209°
2026-04-28 22:00 8.88111 -79.37236 5248 ft 279 kts 210°
2026-04-28 22:00 8.86633 -79.38435 4892 ft 271 kts 237°
2026-04-28 22:01 8.85933 -79.40150 4601 ft 261 kts 266°
2026-04-28 22:01 8.86046 -79.41933 4309 ft 252 kts 287°
2026-04-28 22:01 8.86706 -79.43530 3946 ft 240 kts 306°
2026-04-28 22:01 8.87674 -79.44831 3664 ft 225 kts 311°
2026-04-28 22:02 8.88316 -79.45627 3476 ft 216 kts 313°
2026-04-28 22:02 8.89436 -79.46533 3218 ft 202 kts 342°
2026-04-28 22:02 8.90790 -79.46575 2936 ft 194 kts 13°
2026-04-28 22:02 8.92052 -79.46157 2712 ft 189 kts 19°
2026-04-28 22:03 8.93255 -79.45658 2463 ft 185 kts 20°
2026-04-28 22:03 8.94412 -79.45114 2230 ft 181 kts 24°
2026-04-28 22:03 8.95503 -79.44516 2004 ft 177 kts 26°
2026-04-28 22:03 8.96582 -79.43905 1795 ft 173 kts 26°
2026-04-28 22:04 8.97589 -79.43332 1575 ft 161 kts 26°
2026-04-28 22:04 8.98563 -79.42779 1378 ft 160 kts 26°
2026-04-28 22:04 8.99491 -79.42253 1184 ft 146 kts 25°
2026-04-28 22:04 9.00329 -79.41776 999 ft 138 kts 25°
2026-04-28 22:05 9.01199 -79.41284 835 ft 143 kts 27°
2026-04-28 22:05 9.02058 -79.40798 637 ft 140 kts 28°
2026-04-28 22:05 9.02897 -79.40319 413 ft 140 kts 28°
2026-04-28 22:05 9.03715 -79.39856 303 ft 134 kts 27°
2026-04-28 22:06 9.04553 -79.39389 141 ft 141 kts 27°
2026-04-28 22:06 9.05398 -79.38908 36 ft 133 kts 30°
2026-04-28 22:06 9.06009 -79.38551 37 ft 68 kts 30°
2026-04-28 22:06 9.06285 -79.38394 36 ft 32 kts 26°
2026-04-28 22:07 9.06432 -79.38377 34 ft 15 kts 360°
2026-04-28 22:07 9.06535 -79.38377 35 ft 15 kts
2026-04-28 22:07 9.06626 -79.38390 35 ft 10 kts 329°
2026-04-28 22:07 9.06655 -79.38448 35 ft 10 kts 263°
2026-04-28 22:08 9.06602 -79.38490 35 ft 11 kts 206°
2026-04-28 22:08 9.06505 -79.38541 35 ft 20 kts 208°
2026-04-28 22:08 9.06383 -79.38605 35 ft 20 kts 206°
2026-04-28 22:08 9.06260 -79.38666 35 ft 20 kts 208°
2026-04-28 22:09 9.06139 -79.38734 35 ft 20 kts 209°
2026-04-28 22:09 9.06040 -79.38793 35 ft 12 kts 218°
2026-04-28 22:09 9.06038 -79.38870 35 ft 12 kts 294°
2026-04-28 22:09 9.06071 -79.38944 35 ft 12 kts 276°
2026-04-28 22:10 9.06050 -79.38992 35 ft 4 kts 227°
2026-04-28 22:10 9.06027 -79.39013 35 ft 5 kts 218°
2026-04-28 22:10 9.06012 -79.39024 35 ft 3 kts 218°
2026-04-28 22:10 9.06010 -79.39045 35 ft 3 kts 287°
2026-04-28 22:11 9.06025 -79.39065 35 ft 4 kts 311°
2026-04-28 22:11 9.06038 -79.39076 35 ft 1 kts 321°
2026-04-28 22:11 9.06045 -79.39082 35 ft 0 kts 320°